M I D A S
Marine Information and Data Acquisition System
Tripno 1968 of the Zeeleeuw from 2010-09-29 05:11:20 to 2010-09-29 16:54:45
Back to CruiseResearch ActivitiesStationsMapUnderway DataData graphs

EquipmentUnitsComment
TimeDGPSUTC
LatitudeDGPSDM.mWGS84
LongitudeDGPSDM.mWGS84
TemperatureSBE03/SBE38deg celciusITS90
ConductivitySBE21S/mITS90
SalinitySBE21 Practical Salinity Units
ChlorophylAChelsea fluorimeterg/lCalibrated in Aceton
Missing or incorrect values are displayed as -999
Sea surface data collected by the RV Zeeleeuw from 2010-09-29 05:02:47 to 2010-09-29 17:04:34
                                                                                    Next 1000 lines
Time Latitude Longitude Temperature Conductivity Salinity ChlorophylA
2010-09-29 05:02:57 51°13.648 2°55.988 20.3688 0.079832 0.403689 -0.861272
2010-09-29 05:03:02 51°13.648 2°55.985 20.4773 0.079832 0.403683 -0.896096
2010-09-29 05:03:07 51°13.649 2°55.982 20.4508 0.079832 0.403689 -0.861272
2010-09-29 05:03:12 51°13.65 2°55.979 20.4553 0.079832 0.403689 -0.861272
2010-09-29 05:03:17 51°13.652 2°55.974 20.4362 0.079832 0.403695 -0.896096
2010-09-29 05:03:23 51°13.653 2°55.969 20.4579 0.079832 0.403695 -0.861272
2010-09-29 05:03:29 51°13.656 2°55.962 20.4528 0.079832 0.403695 -0.896096
2010-09-29 05:03:34 51°13.658 2°55.956 20.4488 0.079832 0.4037 -0.896096
2010-09-29 05:03:41 51°13.661 2°55.946 20.4507 0.079832 0.403695 -0.861272
2010-09-29 05:03:46 51°13.662 2°55.939 20.4637 0.079832 0.403695 -0.861272
2010-09-29 05:03:51 51°13.665 2°55.931 20.4659 0.079936 0.404244 -0.861272
2010-09-29 05:03:56 51°13.667 2°55.923 20.473 0.079832 0.403706 -0.861272
2010-09-29 05:04:01 51°13.669 2°55.915 20.4569 0.079832 0.4037 -0.861272
2010-09-29 05:04:06 51°13.671 2°55.906 20.4693 0.079832 0.403695 -0.861272
2010-09-29 05:04:11 51°13.673 2°55.897 20.4634 0.079832 0.4037 -0.861272
2010-09-29 05:04:16 51°13.675 2°55.889 20.5043 0.079832 0.4037 -0.861272
2010-09-29 05:04:21 51°13.677 2°55.88 20.4887 0.079832 0.4037 -0.896096
2010-09-29 05:04:26 51°13.68 2°55.871 20.4868 0.079832 0.4037 -0.896096
2010-09-29 05:04:31 51°13.682 2°55.862 20.4771 0.079832 0.4037 -0.896096
2010-09-29 05:04:36 51°13.684 2°55.854 20.4848 0.079832 0.4037 -0.896096
2010-09-29 05:04:41 51°13.686 2°55.845 20.4766 0.079832 0.4037 -0.896096
2010-09-29 05:04:46 51°13.687 2°55.837 20.4708 0.079832 0.4037 -0.896096
2010-09-29 05:04:51 51°13.69 2°55.829 20.4853 0.079832 0.4037 -0.861272
2010-09-29 05:04:56 51°13.691 2°55.821 20.4842 0.079832 0.403695 -0.861272
2010-09-29 05:05:01 51°13.693 2°55.813 20.4791 0.079832 0.403695 -0.896096
2010-09-29 05:05:06 51°13.695 2°55.805 20.4759 0.079832 0.4037 -0.896096
2010-09-29 05:05:11 51°13.696 2°55.797 20.4775 0.079832 0.403695 -0.896096
2010-09-29 05:05:16 51°13.698 2°55.79 20.4745 0.079832 0.403695 -0.896096
2010-09-29 05:05:21 51°13.7 2°55.783 20.4627 0.079832 0.4037 -0.896096
2010-09-29 05:05:25 51°13.701 2°55.778 20.4547 0.079832 0.4037 -0.896096
2010-09-29 05:05:30 51°13.702 2°55.771 20.4738 0.079832 0.403706 -0.896096
2010-09-29 05:05:35 51°13.704 2°55.764 20.4781 0.079832 0.4037 -0.861272
2010-09-29 05:05:41 51°13.705 2°55.756 20.4587 0.079832 0.403695 -0.861272
2010-09-29 05:05:45 51°13.706 2°55.752 20.4765 0.079832 0.403695 -0.861272
2010-09-29 05:05:51 51°13.707 2°55.748 20.5 0.079832 0.403695 -0.896096
2010-09-29 05:05:56 51°13.707 2°55.745 20.5021 0.079832 0.403695 -0.896096
2010-09-29 05:06:01 51°13.707 2°55.745 20.5112 0.079832 0.403689 -0.896096
2010-09-29 05:06:05 51°13.708 2°55.745 20.4995 0.079832 0.403689 -0.896096
2010-09-29 05:06:11 51°13.709 2°55.746 20.4873 0.079832 0.403695 -0.861272
2010-09-29 05:06:16 51°13.709 2°55.748 20.4822 0.079832 0.403695 -0.861272
2010-09-29 05:06:21 51°13.71 2°55.749 20.3929 0.079832 0.403695 -0.861272
2010-09-29 05:06:25 51°13.711 2°55.749 20.3555 0.079832 0.4037 -0.896096
2010-09-29 05:06:31 51°13.711 2°55.749 20.3911 0.079832 0.403695 -0.861272
2010-09-29 05:06:35 51°13.711 2°55.749 20.3971 0.079832 0.4037 -0.896096
2010-09-29 05:06:41 51°13.711 2°55.748 20.2806 0.079832 0.403695 -0.896096
2010-09-29 05:06:45 51°13.71 2°55.745 20.4298 0.079832 0.403695 -0.896096
2010-09-29 05:06:50 51°13.709 2°55.743 20.4404 0.079832 0.403689 -0.861272
2010-09-29 05:06:55 51°13.708 2°55.739 20.4415 0.079832 0.403695 -0.896096
2010-09-29 05:07:00 51°13.706 2°55.736 20.4491 0.079832 0.403689 -0.896096
2010-09-29 05:07:05 51°13.705 2°55.733 20.4493 0.079832 0.403683 -0.861272
2010-09-29 05:07:10 51°13.703 2°55.73 20.4453 0.079832 0.403683 -0.896096
2010-09-29 05:07:16 51°13.702 2°55.727 20.4689 0.079832 0.403683 -0.896096
2010-09-29 05:07:21 51°13.701 2°55.726 20.4784 0.079832 0.403683 -0.861272
2010-09-29 05:07:26 51°13.701 2°55.726 20.5038 0.079832 0.403671 -0.896096
2010-09-29 05:07:31 51°13.703 2°55.726 20.5002 0.079832 0.403671 -0.861272
2010-09-29 05:07:36 51°13.704 2°55.727 20.5038 0.079832 0.403671 -0.896096
2010-09-29 05:07:41 51°13.707 2°55.727 20.5037 0.079832 0.403671 -0.93092
2010-09-29 05:07:46 51°13.71 2°55.728 20.5166 0.079832 0.403671 -0.93092
2010-09-29 05:07:51 51°13.713 2°55.727 20.5188 0.079832 0.403677 -0.861272
2010-09-29 05:07:56 51°13.717 2°55.726 20.5198 0.079832 0.403671 -0.896096
2010-09-29 05:08:01 51°13.721 2°55.724 20.5181 0.079832 0.403671 -0.861272
2010-09-29 05:08:06 51°13.726 2°55.721 20.5009 0.079832 0.403671 -0.896096
2010-09-29 05:08:11 51°13.731 2°55.717 20.4635 0.079832 0.403671 -0.896096
2010-09-29 05:08:15 51°13.736 2°55.714 20.4416 0.079832 0.403671 -0.896096
2010-09-29 05:08:21 51°13.743 2°55.708 20.4213 0.079832 0.403654 -0.896096
2010-09-29 05:08:25 51°13.749 2°55.704 20.3976 0.079832 0.403648 -0.896096
2010-09-29 05:08:30 51°13.756 2°55.698 20.3673 0.079832 0.403648 -0.896096
2010-09-29 05:08:35 51°13.763 2°55.692 20.3627 0.079832 0.403648 -0.896096
2010-09-29 05:08:40 51°13.771 2°55.686 20.3282 0.079728 0.403105 -0.896096
2010-09-29 05:08:45 51°13.779 2°55.678 20.3172 0.079728 0.403105 -0.896096
2010-09-29 05:08:49 51°13.786 2°55.673 20.3248 0.079728 0.403099 -0.896096
2010-09-29 05:08:54 51°13.795 2°55.665 20.3067 0.079728 0.403105 -0.861272
2010-09-29 05:08:59 51°13.804 2°55.658 20.2817 0.079728 0.40311 -0.896096
2010-09-29 05:09:04 51°13.813 2°55.65 20.3238 0.079728 0.403105 -0.896096
2010-09-29 05:09:09 51°13.824 2°55.642 20.2679 0.079728 0.403105 -0.896096
2010-09-29 05:09:13 51°13.832 2°55.635 20.2956 0.079728 0.403105 -0.896096
2010-09-29 05:09:18 51°13.842 2°55.627 20.2818 0.079728 0.403105 -0.861272
2010-09-29 05:09:23 51°13.853 2°55.618 20.2186 0.079728 0.403105 -0.896096
2010-09-29 05:09:29 51°13.867 2°55.608 20.2642 0.079728 0.403099 -0.861272
2010-09-29 05:09:33 51°13.876 2°55.601 20.2718 0.079728 0.403105 -0.861272
2010-09-29 05:09:38 51°13.888 2°55.591 20.244 0.079728 0.403105 -0.93092
2010-09-29 05:09:43 51°13.9 2°55.582 20.2993 0.079728 0.403105 -0.93092
2010-09-29 05:09:47 51°13.91 2°55.575 20.2615 0.079728 0.403099 -0.861272
2010-09-29 05:09:52 51°13.922 2°55.566 20.2715 0.079728 0.403105 -0.896096
2010-09-29 05:09:57 51°13.934 2°55.557 20.3039 0.079728 0.403099 -0.896096
2010-09-29 05:10:02 51°13.946 2°55.548 20.3304 0.079728 0.403087 -0.896096
2010-09-29 05:10:07 51°13.958 2°55.538 20.2388 0.079728 0.403087 -0.861272
2010-09-29 05:10:12 51°13.971 2°55.529 20.3094 0.079728 0.403087 -0.861272
2010-09-29 05:10:17 51°13.983 2°55.519 20.3595 0.079728 0.403087 -0.896096
2010-09-29 05:10:22 51°13.995 2°55.509 20.3213 0.079728 0.403081 -0.896096
2010-09-29 05:10:27 51°14.008 2°55.5 20.3277 0.079728 0.403093 -0.93092
2010-09-29 05:10:32 51°14.02 2°55.49 20.3106 0.079728 0.403087 -0.896096
2010-09-29 05:10:37 51°14.032 2°55.48 20.3054 0.079728 0.403081 -0.896096
2010-09-29 05:10:42 51°14.045 2°55.471 20.3088 0.079728 0.403081 -0.896096
2010-09-29 05:10:47 51°14.057 2°55.461 20.3166 0.079728 0.40307 -0.896096
2010-09-29 05:10:52 51°14.07 2°55.451 20.3324 0.079728 0.40307 -0.896096
2010-09-29 05:10:57 51°14.082 2°55.442 20.3419 0.079728 0.403058 -0.896096
2010-09-29 05:11:02 51°14.095 2°55.432 20.3197 0.079728 0.403058 -0.896096
2010-09-29 05:11:07 51°14.107 2°55.422 20.3643 0.079728 0.403058 -0.93092
2010-09-29 05:11:12 51°14.12 2°55.412 20.3593 0.079728 0.403058 -0.93092
2010-09-29 05:11:17 51°14.133 2°55.402 20.3639 0.079728 0.403058 -0.896096
2010-09-29 05:11:22 51°14.145 2°55.392 20.3434 0.079728 0.403052 -0.896096
2010-09-29 05:11:27 51°14.157 2°55.382 20.3218 0.079728 0.403052 -0.861272
2010-09-29 05:11:32 51°14.17 2°55.372 20.3773 0.079728 0.40304 -0.93092
2010-09-29 05:11:37 51°14.183 2°55.361 20.3401 0.079728 0.40304 -0.896096
2010-09-29 05:11:42 51°14.196 2°55.35 20.3794 0.079728 0.40304 -0.896096
2010-09-29 05:11:47 51°14.208 2°55.34 20.3767 0.079728 0.403035 -0.861272
2010-09-29 05:11:53 51°14.223 2°55.326 20.3609 0.079728 0.403029 -0.896096
2010-09-29 05:11:57 51°14.233 2°55.316 20.4151 0.079624 0.402485 -0.861272
2010-09-29 05:12:02 51°14.246 2°55.304 20.3971 0.079624 0.402485 -0.896096
2010-09-29 05:12:07 51°14.258 2°55.292 20.3576 0.079624 0.40248 -0.896096
2010-09-29 05:12:12 51°14.271 2°55.279 20.2555 0.079624 0.40248 -0.896096
2010-09-29 05:12:17 51°14.283 2°55.266 20.2422 0.079624 0.402474 -0.861272
2010-09-29 05:12:22 51°14.295 2°55.253 20.2724 0.079624 0.402474 -0.896096
2010-09-29 05:12:27 51°14.308 2°55.24 20.3033 0.079624 0.402468 -0.861272
2010-09-29 05:12:32 51°14.321 2°55.227 20.2735 0.079624 0.402468 -0.896096
2010-09-29 05:12:37 51°14.333 2°55.214 20.1921 0.079624 0.402456 -0.861272
2010-09-29 05:12:42 51°14.346 2°55.202 20.2746 0.079624 0.402456 -0.861272
2010-09-29 05:12:47 51°14.36 2°55.191 20.3468 0.079624 0.402462 -0.896096
2010-09-29 05:12:52 51°14.373 2°55.179 20.3372 0.079624 0.402456 -0.896096
2010-09-29 05:12:57 51°14.386 2°55.167 20.2787 0.079624 0.402462 -0.861272
2010-09-29 05:13:02 51°14.4 2°55.154 20.3322 0.079624 0.402462 -0.896096
2010-09-29 05:13:07 51°14.414 2°55.142 20.3653 0.079624 0.402456 -0.861272
2010-09-29 05:13:12 51°14.427 2°55.129 20.2338 0.079624 0.402456 -0.861272
2010-09-29 05:13:17 51°14.441 2°55.116 20.2526 0.079624 0.402456 -0.93092
2010-09-29 05:13:22 51°14.455 2°55.103 20.2489 0.079624 0.402445 -0.896096
2010-09-29 05:13:27 51°14.469 2°55.089 20.2812 0.079624 0.402439 -0.896096
2010-09-29 05:13:32 51°14.483 2°55.076 20.2555 0.079624 0.402433 -0.93092
2010-09-29 05:13:37 51°14.498 2°55.063 20.1978 0.079624 0.402433 -0.896096
2010-09-29 05:13:42 51°14.512 2°55.049 20.2662 0.079624 0.402433 -0.896096
2010-09-29 05:13:47 51°14.527 2°55.035 20.2652 0.079624 0.402439 -0.896096
2010-09-29 05:13:52 51°14.542 2°55.02 20.2318 0.079624 0.402433 -0.861272
2010-09-29 05:13:57 51°14.557 2°55.006 20.1571 0.079624 0.402427 -0.896096
2010-09-29 05:14:02 51°14.572 2°54.99 20.2634 0.079624 0.402433 -0.861272
2010-09-29 05:14:07 51°14.588 2°54.975 20.1378 0.07952 0.401884 -0.861272
2010-09-29 05:14:12 51°14.603 2°54.959 20.2053 0.07952 0.401884 -0.861272
2010-09-29 05:14:17 51°14.619 2°54.944 20.1652 0.079624 0.402416 -0.896096
2010-09-29 05:14:22 51°14.634 2°54.929 20.1912 0.07952 0.401855 -0.861272
2010-09-29 05:14:27 51°14.65 2°54.913 20.223 0.07952 0.401861 -0.896096
2010-09-29 05:14:32 51°14.666 2°54.897 20.187 0.07952 0.401867 -0.93092
2010-09-29 05:14:37 51°14.681 2°54.881 20.2074 0.07952 0.401861 -0.896096
2010-09-29 05:14:42 51°14.697 2°54.865 20.1999 0.07952 0.401861 -0.896096
2010-09-29 05:14:47 51°14.713 2°54.849 20.2396 0.07952 0.401849 -0.896096
2010-09-29 05:14:52 51°14.728 2°54.834 20.1911 0.07952 0.401855 -0.896096
2010-09-29 05:14:57 51°14.744 2°54.817 20.2178 0.07952 0.401849 -0.896096
2010-09-29 05:15:02 51°14.76 2°54.803 20.1916 0.07952 0.401844 -0.93092
2010-09-29 05:15:07 51°14.776 2°54.787 20.2274 0.07952 0.401844 -0.896096
2010-09-29 05:15:12 51°14.792 2°54.772 20.228 0.07952 0.401844 -0.896096
2010-09-29 05:15:17 51°14.807 2°54.756 20.2337 0.07952 0.401849 -0.861272
2010-09-29 05:15:22 51°14.823 2°54.74 20.2288 0.07952 0.401855 -0.861272
2010-09-29 05:15:28 51°14.842 2°54.722 20.1997 0.07952 0.401855 -0.896096
2010-09-29 05:15:33 51°14.857 2°54.705 20.2396 0.07952 0.401849 -0.861272
2010-09-29 05:15:39 51°14.875 2°54.685 20.2061 0.07952 0.401826 -0.861272
2010-09-29 05:15:45 51°14.893 2°54.666 20.2452 0.07952 0.401826 -0.861272
2010-09-29 05:15:50 51°14.908 2°54.648 20.1207 0.07952 0.401809 -0.861272
2010-09-29 05:15:55 51°14.923 2°54.631 20.2274 0.07952 0.401797 -0.93092
2010-09-29 05:16:00 51°14.938 2°54.614 20.1928 0.07952 0.401785 -0.861272
2010-09-29 05:16:05 51°14.952 2°54.597 20.2173 0.07952 0.401797 -0.861272
2010-09-29 05:16:10 51°14.967 2°54.581 20.1802 0.079416 0.401254 -0.896096
2010-09-29 05:16:15 51°14.983 2°54.564 20.1833 0.079416 0.401254 -0.896096
2010-09-29 05:16:20 51°14.998 2°54.547 20.1808 0.07952 0.401803 -0.93092
2010-09-29 05:16:25 51°15.013 2°54.531 20.2043 0.07952 0.401814 -0.896096
2010-09-29 05:16:29 51°15.025 2°54.518 20.1998 0.07952 0.401809 -0.896096
2010-09-29 05:16:34 51°15.04 2°54.5 20.1639 0.079416 0.40126 -0.896096
2010-09-29 05:16:39 51°15.055 2°54.483 20.1834 0.079416 0.401254 -0.93092
2010-09-29 05:16:44 51°15.07 2°54.465 20.1335 0.079416 0.401254 -0.93092
2010-09-29 05:16:49 51°15.085 2°54.448 20.1033 0.079416 0.401237 -0.896096
2010-09-29 05:16:53 51°15.097 2°54.434 20.1999 0.079416 0.401225 -0.896096
2010-09-29 05:16:58 51°15.111 2°54.416 20.1765 0.079416 0.401231 -0.896096
2010-09-29 05:17:03 51°15.126 2°54.398 20.2046 0.079416 0.401225 -0.896096
2010-09-29 05:17:08 51°15.14 2°54.38 20.1809 0.079416 0.401225 -0.861272
2010-09-29 05:17:13 51°15.155 2°54.361 20.1179 0.079416 0.401225 -0.861272
2010-09-29 05:17:17 51°15.166 2°54.347 20.1558 0.07952 0.40178 -0.896096
2010-09-29 05:17:22 51°15.18 2°54.329 20.1778 0.079416 0.401219 -0.896096
2010-09-29 05:17:27 51°15.195 2°54.311 20.1874 0.079416 0.401208 -0.861272
2010-09-29 05:17:32 51°15.209 2°54.293 20.1967 0.079416 0.401213 -0.896096
2010-09-29 05:17:37 51°15.224 2°54.275 20.1171 0.079416 0.401196 -0.896096
2010-09-29 05:17:42 51°15.238 2°54.257 20.1584 0.079416 0.401196 -0.896096
2010-09-29 05:17:47 51°15.252 2°54.24 20.1545 0.079416 0.401202 -0.896096
2010-09-29 05:17:52 51°15.267 2°54.221 20.105 0.079416 0.40119 -0.896096
2010-09-29 05:17:57 51°15.281 2°54.204 20.1759 0.079416 0.401185 -0.896096
2010-09-29 05:18:02 51°15.296 2°54.186 20.1585 0.079416 0.40119 -0.861272
2010-09-29 05:18:07 51°15.31 2°54.169 20.1654 0.079416 0.401173 -0.896096
2010-09-29 05:18:12 51°15.324 2°54.151 20.1789 0.079416 0.401173 -0.896096
2010-09-29 05:18:17 51°15.338 2°54.134 20.1781 0.079416 0.401167 -0.896096
2010-09-29 05:18:22 51°15.353 2°54.116 20.1385 0.079416 0.401173 -0.861272
2010-09-29 05:18:27 51°15.367 2°54.098 20.1324 0.079416 0.401167 -0.896096
2010-09-29 05:18:32 51°15.381 2°54.08 20.1702 0.079416 0.40115 -0.93092
2010-09-29 05:18:37 51°15.396 2°54.062 20.1695 0.079416 0.401156 -0.896096
2010-09-29 05:18:42 51°15.41 2°54.043 20.1534 0.079416 0.401156 -0.896096
2010-09-29 05:18:47 51°15.424 2°54.025 20.1212 0.079416 0.401144 -0.896096
2010-09-29 05:18:52 51°15.437 2°54.006 20.1634 0.079312 0.400601 -0.861272
2010-09-29 05:18:57 51°15.452 2°53.986 20.1331 0.079312 0.40059 -0.896096
2010-09-29 05:19:02 51°15.465 2°53.967 20.1257 0.079312 0.400584 -0.861272
2010-09-29 05:19:07 51°15.479 2°53.948 20.1266 0.079312 0.400578 -0.861272
2010-09-29 05:19:12 51°15.493 2°53.928 20.1461 0.079312 0.400578 -0.861272
2010-09-29 05:19:17 51°15.507 2°53.909 20.1706 0.079416 0.401121 -0.896096
2010-09-29 05:19:22 51°15.521 2°53.889 20.1718 0.079312 0.400572 -0.861272
2010-09-29 05:19:27 51°15.534 2°53.869 20.132 0.079312 0.400572 -0.896096
2010-09-29 05:19:32 51°15.548 2°53.849 20.1667 0.079312 0.400566 -0.896096
2010-09-29 05:19:37 51°15.562 2°53.829 20.1604 0.079312 0.400549 -0.861272
2010-09-29 05:19:42 51°15.575 2°53.809 20.1276 0.079312 0.400549 -0.861272
2010-09-29 05:19:47 51°15.589 2°53.79 20.1512 0.079312 0.400549 -0.896096
2010-09-29 05:19:52 51°15.603 2°53.77 20.1442 0.079312 0.400532 -0.896096
2010-09-29 05:19:57 51°15.617 2°53.751 20.1385 0.079312 0.400543 -0.861272
2010-09-29 05:20:02 51°15.631 2°53.731 20.1578 0.079312 0.400543 -0.861272
2010-09-29 05:20:08 51°15.647 2°53.708 20.1549 0.079312 0.400532 -0.861272
2010-09-29 05:20:12 51°15.658 2°53.692 20.1407 0.079312 0.400532 -0.861272
2010-09-29 05:20:17 51°15.672 2°53.673 20.153 0.079312 0.400526 -0.896096
2010-09-29 05:20:22 51°15.686 2°53.654 20.1664 0.079312 0.400514 -0.896096
2010-09-29 05:20:27 51°15.7 2°53.635 20.1639 0.079312 0.40052 -0.896096
2010-09-29 05:20:32 51°15.714 2°53.617 20.1643 0.079312 0.40052 -0.861272
2010-09-29 05:20:37 51°15.728 2°53.598 20.1563 0.079208 0.399972 -0.861272
2010-09-29 05:20:42 51°15.742 2°53.579 20.1414 0.079208 0.399972 -0.861272
2010-09-29 05:20:48 51°15.758 2°53.556 20.1453 0.079312 0.400509 -0.896096
2010-09-29 05:20:52 51°15.77 2°53.541 20.1591 0.079312 0.400497 -0.861272
2010-09-29 05:20:57 51°15.783 2°53.522 20.1111 0.079312 0.400497 -0.861272
2010-09-29 05:21:02 51°15.797 2°53.503 20.1706 0.079312 0.400491 -0.861272
2010-09-29 05:21:07 51°15.811 2°53.485 20.1064 0.079208 0.399937 -0.861272
2010-09-29 05:21:12 51°15.825 2°53.466 20.0894 0.079208 0.399937 -0.861272
2010-09-29 05:21:17 51°15.838 2°53.447 20.1123 0.079312 0.400486 -0.896096
2010-09-29 05:21:22 51°15.852 2°53.429 20.1405 0.079208 0.399931 -0.896096
2010-09-29 05:21:27 51°15.866 2°53.41 20.1355 0.079208 0.399931 -0.896096
2010-09-29 05:21:32 51°15.88 2°53.392 20.1156 0.079208 0.39992 -0.896096
2010-09-29 05:21:37 51°15.894 2°53.375 20.155 0.079208 0.399914 -0.896096
2010-09-29 05:21:42 51°15.908 2°53.356 20.1298 0.079208 0.399914 -0.896096
2010-09-29 05:21:47 51°15.922 2°53.338 20.1379 0.079208 0.399914 -0.896096
2010-09-29 05:21:52 51°15.937 2°53.322 20.083 0.079208 0.399908 -0.861272
2010-09-29 05:21:57 51°15.951 2°53.304 20.1399 0.079208 0.399914 -0.896096
2010-09-29 05:22:02 51°15.967 2°53.289 20.1183 0.079208 0.399891 -0.896096
2010-09-29 05:22:07 51°15.983 2°53.273 20.1402 0.079208 0.399897 -0.861272
2010-09-29 05:22:12 51°15.999 2°53.259 20.1327 0.079208 0.399897 -0.861272
2010-09-29 05:22:17 51°16.015 2°53.245 20.1189 0.079312 0.400428 -0.861272
2010-09-29 05:22:22 51°16.031 2°53.233 20.1339 0.079208 0.399897 -0.896096
2010-09-29 05:22:27 51°16.048 2°53.22 20.1221 0.079208 0.399891 -0.896096
2010-09-29 05:22:32 51°16.065 2°53.207 20.145 0.079208 0.399885 -0.93092
2010-09-29 05:22:37 51°16.082 2°53.195 20.1281 0.079208 0.399891 -0.826448
2010-09-29 05:22:42 51°16.098 2°53.184 20.1577 0.079208 0.399891 -0.826448
2010-09-29 05:22:47 51°16.116 2°53.172 20.1615 0.079208 0.399879 -0.896096
2010-09-29 05:22:52 51°16.133 2°53.161 20.1548 0.079208 0.399879 -0.896096
2010-09-29 05:22:57 51°16.15 2°53.149 20.1646 0.079208 0.399874 -0.896096
2010-09-29 05:23:02 51°16.167 2°53.137 20.1634 0.079208 0.399868 -0.896096
2010-09-29 05:23:07 51°16.184 2°53.126 20.1369 0.079208 0.399868 -0.896096
2010-09-29 05:23:12 51°16.201 2°53.115 20.1764 0.079208 0.399868 -0.896096
2010-09-29 05:23:17 51°16.219 2°53.103 20.1643 0.079208 0.399862 -0.896096
2010-09-29 05:23:22 51°16.236 2°53.092 20.1644 0.079208 0.399868 -0.861272
2010-09-29 05:23:27 51°16.253 2°53.08 20.1769 0.079208 0.399868 -0.896096
2010-09-29 05:23:32 51°16.27 2°53.069 20.1001 0.079208 0.399856 -0.896096
2010-09-29 05:23:37 51°16.288 2°53.057 20.144 0.079208 0.399862 -0.896096
2010-09-29 05:23:42 51°16.305 2°53.046 19.9774 0.079208 0.399862 -0.896096
2010-09-29 05:23:47 51°16.322 2°53.034 20.1621 0.079208 0.399851 -0.896096
2010-09-29 05:23:52 51°16.34 2°53.023 20.2965 0.079208 0.399856 -0.896096
2010-09-29 05:23:57 51°16.357 2°53.012 20.2731 0.079208 0.399851 -0.896096
2010-09-29 05:24:02 51°16.374 2°53 20.2721 0.079208 0.399851 -0.896096
2010-09-29 05:24:07 51°16.392 2°52.988 20.2764 0.079104 0.399308 -0.896096
2010-09-29 05:24:12 51°16.409 2°52.977 20.252 0.079104 0.399308 -0.896096
2010-09-29 05:24:17 51°16.426 2°52.965 20.2435 0.079208 0.399845 -0.861272
2010-09-29 05:24:22 51°16.444 2°52.954 20.2354 0.079208 0.399851 -0.861272
2010-09-29 05:24:27 51°16.461 2°52.942 20.2328 0.079104 0.399314 -0.861272
2010-09-29 05:24:32 51°16.478 2°52.93 20.2282 0.079208 0.399845 -0.896096
2010-09-29 05:24:37 51°16.495 2°52.918 20.2302 0.079208 0.399862 -0.896096
2010-09-29 05:24:42 51°16.513 2°52.907 20.2296 0.079208 0.399862 -0.896096
2010-09-29 05:24:47 51°16.53 2°52.895 20.2325 0.079208 0.399856 -0.861272
2010-09-29 05:24:52 51°16.547 2°52.883 20.2316 0.079208 0.399851 -0.896096
2010-09-29 05:24:57 51°16.564 2°52.871 20.2315 0.079208 0.399851 -0.861272
2010-09-29 05:25:02 51°16.581 2°52.859 20.2318 0.079208 0.399856 -0.896096
2010-09-29 05:25:07 51°16.599 2°52.847 20.2341 0.079208 0.399856 -0.896096
2010-09-29 05:25:12 51°16.616 2°52.835 20.2367 0.079208 0.399856 -0.896096
2010-09-29 05:25:17 51°16.633 2°52.823 20.2377 0.079104 0.399314 -0.861272
2010-09-29 05:25:22 51°16.65 2°52.811 20.2374 0.079104 0.39932 -0.861272
2010-09-29 05:25:27 51°16.667 2°52.8 20.2386 0.079208 0.399868 -0.861272
2010-09-29 05:25:32 51°16.685 2°52.788 20.2447 0.079104 0.399325 -0.896096
2010-09-29 05:25:37 51°16.702 2°52.776 20.2445 0.079208 0.399868 -0.896096
2010-09-29 05:25:42 51°16.719 2°52.764 20.2455 0.079208 0.399868 -0.896096
2010-09-29 05:25:47 51°16.736 2°52.753 20.2464 0.079208 0.399879 -0.826448
2010-09-29 05:25:52 51°16.753 2°52.741 20.2465 0.079104 0.399337 -0.861272
2010-09-29 05:25:57 51°16.771 2°52.729 20.2501 0.079104 0.399337 -0.896096
2010-09-29 05:26:02 51°16.788 2°52.717 20.2525 0.079104 0.399337 -0.896096
2010-09-29 05:26:07 51°16.805 2°52.705 20.257 0.079104 0.399337 -0.93092
2010-09-29 05:26:12 51°16.821 2°52.693 20.2603 0.079104 0.399337 -0.93092
2010-09-29 05:26:17 51°16.839 2°52.68 20.2634 0.079208 0.399903 -0.896096
2010-09-29 05:26:22 51°16.855 2°52.668 20.2648 0.079104 0.399349 -0.896096
2010-09-29 05:26:27 51°16.872 2°52.655 20.2667 0.079104 0.39936 -0.861272
2010-09-29 05:26:32 51°16.889 2°52.643 20.2659 0.079104 0.399354 -0.896096
2010-09-29 05:26:37 51°16.906 2°52.63 20.2716 0.079208 0.399908 -0.896096
2010-09-29 05:26:42 51°16.923 2°52.618 20.2735 0.079208 0.399908 -0.896096
2010-09-29 05:26:47 51°16.94 2°52.605 20.2762 0.079104 0.399366 -0.861272
2010-09-29 05:26:52 51°16.957 2°52.593 20.278 0.079208 0.399914 -0.861272
2010-09-29 05:26:57 51°16.973 2°52.58 20.2813 0.079208 0.399914 -0.896096
2010-09-29 05:27:02 51°16.99 2°52.568 20.2829 0.079208 0.399937 -0.861272
2010-09-29 05:27:07 51°17.007 2°52.555 20.2855 0.079208 0.399931 -0.896096
2010-09-29 05:27:12 51°17.024 2°52.543 20.2859 0.079208 0.399931 -0.896096
2010-09-29 05:27:17 51°17.041 2°52.53 20.2894 0.079208 0.399926 -0.896096
2010-09-29 05:27:22 51°17.058 2°52.518 20.307 0.079208 0.399931 -0.861272
2010-09-29 05:27:27 51°17.075 2°52.506 20.3252 0.079208 0.399931 -0.861272
2010-09-29 05:27:32 51°17.092 2°52.495 20.3 0.079208 0.399943 -0.93092
2010-09-29 05:27:37 51°17.11 2°52.487 20.3174 0.079208 0.399926 -0.896096
2010-09-29 05:27:42 51°17.128 2°52.477 20.3139 0.079208 0.399926 -0.896096
2010-09-29 05:27:47 51°17.147 2°52.471 20.3244 0.079208 0.399943 -0.861272
2010-09-29 05:27:52 51°17.164 2°52.463 20.3139 0.079208 0.399949 -0.861272
2010-09-29 05:27:57 51°17.183 2°52.457 20.3216 0.079208 0.399954 -0.896096
2010-09-29 05:28:02 51°17.201 2°52.451 20.3224 0.079208 0.399983 -0.861272
2010-09-29 05:28:07 51°17.22 2°52.446 20.3235 0.079208 0.399966 -0.896096
2010-09-29 05:28:12 51°17.238 2°52.44 20.322 0.079208 0.399966 -0.896096
2010-09-29 05:28:17 51°17.257 2°52.435 20.3284 0.079208 0.399978 -0.861272
2010-09-29 05:28:22 51°17.275 2°52.431 20.3279 0.079208 0.399983 -0.896096
2010-09-29 05:28:27 51°17.294 2°52.426 20.3292 0.079208 0.399972 -0.861272
2010-09-29 05:28:32 51°17.313 2°52.422 20.3304 0.079208 0.399983 -0.861272
2010-09-29 05:28:37 51°17.331 2°52.418 20.3342 0.079208 0.399978 -0.896096
2010-09-29 05:28:42 51°17.35 2°52.414 20.3347 0.079208 0.399978 -0.896096
2010-09-29 05:28:47 51°17.369 2°52.41 20.3394 0.079208 0.399989 -0.896096
2010-09-29 05:28:52 51°17.388 2°52.406 20.341 0.079208 0.399995 -0.861272
2010-09-29 05:28:57 51°17.407 2°52.402 20.343 0.079208 0.400006 -0.861272
2010-09-29 05:29:02 51°17.425 2°52.397 20.3464 0.079208 0.400012 -0.861272
2010-09-29 05:29:08 51°17.448 2°52.392 20.348 0.079208 0.400006 -0.896096
2010-09-29 05:29:12 51°17.462 2°52.388 20.3569 0.079208 0.400006 -0.896096
2010-09-29 05:29:17 51°17.481 2°52.383 20.3679 0.079208 0.400024 -0.861272
2010-09-29 05:29:22 51°17.499 2°52.379 20.3588 0.079208 0.400012 -0.861272
2010-09-29 05:29:27 51°17.518 2°52.376 20.3728 0.079208 0.399989 -0.896096
2010-09-29 05:29:32 51°17.537 2°52.373 20.3659 0.079208 0.400001 -0.861272
2010-09-29 05:29:37 51°17.556 2°52.371 20.3697 0.079208 0.400024 -0.861272
2010-09-29 05:29:42 51°17.575 2°52.369 20.3684 0.079208 0.400024 -0.861272
2010-09-29 05:29:47 51°17.594 2°52.368 20.3707 0.079208 0.400024 -0.861272
2010-09-29 05:29:52 51°17.613 2°52.367 20.3712 0.079208 0.40003 -0.93092
2010-09-29 05:29:57 51°17.631 2°52.366 20.3794 0.079208 0.400058 -0.861272
2010-09-29 05:30:02 51°17.65 2°52.365 20.389 0.079208 0.400035 -0.861272
2010-09-29 05:30:07 51°17.669 2°52.364 20.3863 0.079208 0.400041 -0.861272
2010-09-29 05:30:12 51°17.688 2°52.365 20.3875 0.079208 0.400041 -0.861272
2010-09-29 05:30:17 51°17.707 2°52.364 20.3895 0.079208 0.400053 -0.896096
2010-09-29 05:30:22 51°17.725 2°52.366 20.3882 0.079208 0.400047 -0.93092
2010-09-29 05:30:27 51°17.744 2°52.365 20.2456 0.079208 0.40007 -0.896096
2010-09-29 05:30:32 51°17.763 2°52.366 20.1074 0.079208 0.400053 -0.896096
2010-09-29 05:30:37 51°17.782 2°52.366 20.1187 0.079312 0.400624 -0.791624
2010-09-29 05:30:42 51°17.801 2°52.366 20.1518 0.079312 0.400624 -0.791624
2010-09-29 05:30:47 51°17.82 2°52.366 20.1581 0.079208 0.400076 -0.861272
2010-09-29 05:30:52 51°17.839 2°52.366 20.1839 0.079208 0.400082 -0.896096
2010-09-29 05:30:57 51°17.858 2°52.367 20.1952 0.079208 0.400082 -0.861272
2010-09-29 05:31:02 51°17.877 2°52.367 20.1904 0.079208 0.400087 -0.861272
2010-09-29 05:31:07 51°17.896 2°52.367 20.1941 0.079208 0.400082 -0.826448
2010-09-29 05:31:12 51°17.915 2°52.367 20.2242 0.079208 0.400082 -0.826448
2010-09-29 05:31:17 51°17.934 2°52.368 20.2219 0.079208 0.400099 -0.826448
2010-09-29 05:31:22 51°17.954 2°52.368 20.2175 0.079208 0.400099 -0.861272
2010-09-29 05:31:27 51°17.973 2°52.368 20.2295 0.079312 0.400653 -0.861272
2010-09-29 05:31:32 51°17.992 2°52.368 20.228 0.079312 0.400642 -0.861272
2010-09-29 05:31:37 51°18.011 2°52.368 20.226 0.079312 0.400665 -0.861272
2010-09-29 05:31:42 51°18.03 2°52.369 20.2313 0.079312 0.400665 -0.861272
2010-09-29 05:31:47 51°18.049 2°52.368 20.2377 0.079208 0.40011 -0.861272
2010-09-29 05:31:52 51°18.068 2°52.369 20.246 0.079312 0.400671 -0.861272
2010-09-29 05:31:57 51°18.087 2°52.368 20.2468 0.079312 0.400671 -0.861272
2010-09-29 05:32:02 51°18.107 2°52.368 20.2523 0.079312 0.400671 -0.861272
2010-09-29 05:32:07 51°18.126 2°52.369 20.2585 0.079312 0.400682 -0.861272
2010-09-29 05:32:12 51°18.145 2°52.369 20.2486 0.079312 0.400682 -0.861272
2010-09-29 05:32:17 51°18.164 2°52.37 20.2572 0.079312 0.400688 -0.861272
2010-09-29 05:32:22 51°18.183 2°52.37 20.2503 0.079312 0.400688 -0.861272
2010-09-29 05:32:27 51°18.202 2°52.369 20.27 0.079312 0.400694 -0.826448
2010-09-29 05:32:32 51°18.221 2°52.369 20.2814 0.079312 0.400694 -0.861272
2010-09-29 05:32:37 51°18.24 2°52.37 20.2636 0.079312 0.400717 -0.861272
2010-09-29 05:32:42 51°18.259 2°52.369 20.2667 0.079312 0.400717 -0.861272
2010-09-29 05:32:47 51°18.278 2°52.369 20.2832 0.079312 0.400705 -0.861272
2010-09-29 05:32:52 51°18.297 2°52.369 20.2691 0.079312 0.400711 -0.861272
2010-09-29 05:32:57 51°18.317 2°52.369 20.2943 0.079312 0.400717 -0.826448
2010-09-29 05:33:02 51°18.336 2°52.369 20.2888 0.079312 0.400717 -0.861272
2010-09-29 05:33:07 51°18.354 2°52.369 20.2861 0.079312 0.400734 -0.826448
2010-09-29 05:33:12 51°18.373 2°52.369 20.3022 0.079312 0.400734 -0.826448
2010-09-29 05:33:17 51°18.393 2°52.368 20.3049 0.079312 0.40074 -0.861272
2010-09-29 05:33:22 51°18.412 2°52.369 20.294 0.079312 0.40074 -0.861272
2010-09-29 05:33:27 51°18.431 2°52.368 20.296 0.079312 0.400746 -0.861272
2010-09-29 05:33:32 51°18.45 2°52.368 20.2882 0.079312 0.40074 -0.791624
2010-09-29 05:33:37 51°18.469 2°52.367 20.285 0.079312 0.400757 -0.826448
2010-09-29 05:33:42 51°18.489 2°52.366 20.3091 0.079312 0.400757 -0.826448
2010-09-29 05:33:47 51°18.507 2°52.366 20.2928 0.079312 0.400757 -0.861272
2010-09-29 05:33:52 51°18.526 2°52.365 20.3119 0.079312 0.400763 -0.861272
2010-09-29 05:33:57 51°18.545 2°52.365 20.3245 0.079312 0.400769 -0.861272
2010-09-29 05:34:02 51°18.565 2°52.365 20.3083 0.079312 0.400781 -0.826448
2010-09-29 05:34:07 51°18.584 2°52.365 20.3049 0.079312 0.400781 -0.861272
2010-09-29 05:34:12 51°18.603 2°52.365 20.3025 0.079312 0.400781 -0.861272
2010-09-29 05:34:17 51°18.622 2°52.365 20.3152 0.079312 0.400781 -0.826448
2010-09-29 05:34:22 51°18.641 2°52.365 20.307 0.079416 0.401341 -0.861272
2010-09-29 05:34:27 51°18.66 2°52.365 20.3081 0.079416 0.401341 -0.861272
2010-09-29 05:34:32 51°18.679 2°52.365 20.3145 0.079312 0.400804 -0.826448
2010-09-29 05:34:37 51°18.698 2°52.365 20.3128 0.079416 0.401353 -0.861272
2010-09-29 05:34:42 51°18.717 2°52.364 20.3155 0.079416 0.401353 -0.861272
2010-09-29 05:34:47 51°18.736 2°52.364 20.3268 0.079312 0.40081 -0.861272
2010-09-29 05:34:52 51°18.754 2°52.364 20.3223 0.079416 0.401376 -0.861272
2010-09-29 05:34:57 51°18.773 2°52.362 20.3369 0.079416 0.401364 -0.826448
2010-09-29 05:35:02 51°18.792 2°52.362 20.335 0.079416 0.401364 -0.861272
2010-09-29 05:35:07 51°18.811 2°52.362 20.3229 0.079416 0.401376 -0.861272
2010-09-29 05:35:12 51°18.83 2°52.362 20.3358 0.079416 0.401376 -0.861272
2010-09-29 05:35:17 51°18.849 2°52.362 20.3341 0.079416 0.401382 -0.861272
2010-09-29 05:35:22 51°18.868 2°52.362 20.3421 0.079416 0.401387 -0.791624
2010-09-29 05:35:27 51°18.887 2°52.361 20.3372 0.079416 0.401387 -0.826448
2010-09-29 05:35:32 51°18.906 2°52.361 20.3373 0.079416 0.401399 -0.826448
2010-09-29 05:35:37 51°18.925 2°52.362 20.3293 0.079416 0.401393 -0.826448
2010-09-29 05:35:42 51°18.944 2°52.362 20.3354 0.079416 0.401393 -0.826448
2010-09-29 05:35:47 51°18.963 2°52.362 20.3435 0.079416 0.401393 -0.826448
2010-09-29 05:35:52 51°18.983 2°52.363 20.3416 0.079416 0.401411 -0.826448
2010-09-29 05:35:57 51°19.002 2°52.363 20.339 0.079416 0.401416 -0.861272
2010-09-29 05:36:02 51°19.021 2°52.364 20.3415 0.079416 0.401411 -0.861272
2010-09-29 05:36:07 51°19.039 2°52.364 20.3496 0.079416 0.401411 -0.861272
2010-09-29 05:36:12 51°19.058 2°52.365 20.3484 0.079416 0.401411 -0.861272
2010-09-29 05:36:17 51°19.077 2°52.366 20.3484 0.079416 0.401422 -0.861272
2010-09-29 05:36:22 51°19.096 2°52.367 20.3485 0.079416 0.401434 -0.826448
2010-09-29 05:36:27 51°19.115 2°52.368 20.348 0.079416 0.401445 -0.861272
2010-09-29 05:36:32 51°19.133 2°52.368 20.3588 0.079416 0.401445 -0.861272
2010-09-29 05:36:37 51°19.152 2°52.369 20.3647 0.079416 0.401451 -0.826448
2010-09-29 05:36:42 51°19.171 2°52.37 20.356 0.079416 0.401451 -0.826448
2010-09-29 05:36:47 51°19.19 2°52.371 20.3725 0.079416 0.401463 -0.826448
2010-09-29 05:36:52 51°19.209 2°52.372 20.3543 0.079416 0.401463 -0.826448
2010-09-29 05:36:57 51°19.227 2°52.373 20.3717 0.079416 0.401451 -0.861272
2010-09-29 05:37:02 51°19.246 2°52.374 20.3543 0.079416 0.40148 -0.826448
2010-09-29 05:37:07 51°19.265 2°52.374 20.3724 0.079416 0.401469 -0.826448
2010-09-29 05:37:12 51°19.283 2°52.375 20.357 0.079416 0.401469 -0.826448
2010-09-29 05:37:17 51°19.302 2°52.375 20.3581 0.07952 0.402024 -0.826448
2010-09-29 05:37:22 51°19.321 2°52.375 20.3593 0.07952 0.402029 -0.861272
2010-09-29 05:37:27 51°19.339 2°52.375 20.3718 0.07952 0.402047 -0.826448
2010-09-29 05:37:32 51°19.358 2°52.376 20.3752 0.079416 0.401486 -0.826448
2010-09-29 05:37:37 51°19.376 2°52.376 20.3704 0.07952 0.402047 -0.861272
2010-09-29 05:37:42 51°19.395 2°52.377 20.3671 0.07952 0.402047 -0.861272
2010-09-29 05:37:47 51°19.413 2°52.377 20.3835 0.079416 0.401503 -0.791624
2010-09-29 05:37:52 51°19.432 2°52.376 20.3717 0.07952 0.402053 -0.826448
2010-09-29 05:37:57 51°19.451 2°52.377 20.3715 0.07952 0.402053 -0.826448
2010-09-29 05:38:02 51°19.47 2°52.377 20.3766 0.07952 0.402064 -0.826448
2010-09-29 05:38:07 51°19.488 2°52.378 20.3771 0.07952 0.402064 -0.861272
2010-09-29 05:38:12 51°19.507 2°52.379 20.3734 0.07952 0.402064 -0.861272
2010-09-29 05:38:17 51°19.526 2°52.38 20.3837 0.07952 0.40207 -0.826448
2010-09-29 05:38:22 51°19.545 2°52.38 20.3792 0.07952 0.402082 -0.826448
2010-09-29 05:38:28 51°19.568 2°52.381 20.3799 0.079416 0.401532 -0.861272
2010-09-29 05:38:32 51°19.584 2°52.381 20.3859 0.07952 0.402093 -0.861272
2010-09-29 05:38:37 51°19.603 2°52.381 20.3794 0.07952 0.402099 -0.861272
2010-09-29 05:38:42 51°19.622 2°52.382 20.3829 0.07952 0.402099 -0.861272
2010-09-29 05:38:47 51°19.642 2°52.383 20.389 0.07952 0.402093 -0.861272
2010-09-29 05:38:52 51°19.661 2°52.383 20.3823 0.07952 0.402105 -0.861272
2010-09-29 05:38:57 51°19.68 2°52.384 20.3967 0.07952 0.402111 -0.861272
2010-09-29 05:39:02 51°19.699 2°52.384 20.3879 0.07952 0.402117 -0.861272
2010-09-29 05:39:07 51°19.719 2°52.385 20.3999 0.07952 0.402128 -0.826448
2010-09-29 05:39:12 51°19.738 2°52.385 20.4012 0.07952 0.402128 -0.826448
2010-09-29 05:39:17 51°19.758 2°52.386 20.3933 0.07952 0.40214 -0.826448
2010-09-29 05:39:22 51°19.777 2°52.387 20.3896 0.07952 0.402134 -0.861272
2010-09-29 05:39:27 51°19.796 2°52.388 20.3936 0.07952 0.402151 -0.861272
2010-09-29 05:39:32 51°19.815 2°52.388 20.3929 0.07952 0.402151 -0.861272
2010-09-29 05:39:37 51°19.835 2°52.389 20.3995 0.07952 0.402146 -0.826448
2010-09-29 05:39:42 51°19.854 2°52.39 20.4019 0.07952 0.402146 -0.826448
2010-09-29 05:39:47 51°19.873 2°52.391 20.3985 0.079624 0.402707 -0.861272
2010-09-29 05:39:52 51°19.893 2°52.391 20.4094 0.07952 0.402163 -0.861272
2010-09-29 05:39:57 51°19.912 2°52.392 20.4038 0.07952 0.402163 -0.861272
2010-09-29 05:40:02 51°19.931 2°52.393 20.4057 0.079624 0.402736 -0.826448
2010-09-29 05:40:07 51°19.951 2°52.394 20.3989 0.07952 0.402192 -0.826448
2010-09-29 05:40:12 51°19.97 2°52.395 20.4078 0.07952 0.402192 -0.826448
2010-09-29 05:40:17 51°19.99 2°52.396 20.4069 0.079624 0.402718 -0.861272
2010-09-29 05:40:22 51°20.009 2°52.397 20.4005 0.07952 0.402198 -0.826448
2010-09-29 05:40:28 51°20.033 2°52.397 20.4039 0.07952 0.402198 -0.861272
2010-09-29 05:40:32 51°20.048 2°52.398 20.406 0.07952 0.40221 -0.826448
2010-09-29 05:40:37 51°20.068 2°52.399 20.409 0.07952 0.40221 -0.826448
2010-09-29 05:40:42 51°20.087 2°52.4 20.4027 0.07952 0.40221 -0.826448
2010-09-29 05:40:47 51°20.107 2°52.401 20.4103 0.07952 0.402215 -0.826448
2010-09-29 05:40:52 51°20.127 2°52.401 20.4113 0.079624 0.402771 -0.791624
2010-09-29 05:40:57 51°20.146 2°52.402 20.4042 0.07952 0.402227 -0.861272
2010-09-29 05:41:02 51°20.165 2°52.403 20.407 0.079624 0.402782 -0.861272
2010-09-29 05:41:07 51°20.185 2°52.403 20.4066 0.079624 0.402782 -0.826448
2010-09-29 05:41:12 51°20.204 2°52.403 20.4179 0.079624 0.402782 -0.826448
2010-09-29 05:41:17 51°20.223 2°52.403 20.4094 0.079624 0.402788 -0.826448
2010-09-29 05:41:22 51°20.243 2°52.403 20.4156 0.079624 0.402806 -0.861272
2010-09-29 05:41:27 51°20.262 2°52.403 20.4095 0.079624 0.402806 -0.861272
2010-09-29 05:41:32 51°20.28 2°52.403 20.4131 0.079624 0.402812 -0.861272
2010-09-29 05:41:37 51°20.299 2°52.402 20.4164 0.079624 0.402823 -0.826448
2010-09-29 05:41:42 51°20.319 2°52.401 20.4185 0.079624 0.402823 -0.826448
2010-09-29 05:41:47 51°20.338 2°52.4 20.4148 0.079624 0.402823 -0.826448
2010-09-29 05:41:52 51°20.357 2°52.398 20.4224 0.079624 0.402835 -0.861272
2010-09-29 05:41:57 51°20.376 2°52.395 20.4222 0.079624 0.402835 -0.826448
2010-09-29 05:42:02 51°20.395 2°52.394 20.4281 0.079624 0.402841 -0.861272
2010-09-29 05:42:07 51°20.414 2°52.392 20.4264 0.079624 0.402852 -0.896096
2010-09-29 05:42:12 51°20.433 2°52.389 20.4252 0.079624 0.402852 -0.896096
2010-09-29 05:42:17 51°20.452 2°52.387 20.4247 0.079624 0.402847 -0.826448
2010-09-29 05:42:22 51°20.471 2°52.384 20.422 0.079624 0.402852 -0.861272
2010-09-29 05:42:27 51°20.49 2°52.381 20.4228 0.079624 0.40287 -0.861272
2010-09-29 05:42:32 51°20.509 2°52.379 20.4305 0.079624 0.402864 -0.826448
2010-09-29 05:42:37 51°20.528 2°52.377 20.4238 0.079624 0.402864 -0.861272
2010-09-29 05:42:42 51°20.547 2°52.374 20.424 0.079624 0.402864 -0.861272
2010-09-29 05:42:47 51°20.566 2°52.371 20.4342 0.079624 0.40287 -0.861272
2010-09-29 05:42:52 51°20.585 2°52.369 20.4311 0.079624 0.402893 -0.826448
2010-09-29 05:42:57 51°20.604 2°52.366 20.4297 0.079624 0.402893 -0.861272
2010-09-29 05:43:02 51°20.623 2°52.364 20.4407 0.079624 0.402893 -0.826448
2010-09-29 05:43:07 51°20.642 2°52.361 20.4363 0.079624 0.402905 -0.791624
2010-09-29 05:43:12 51°20.661 2°52.359 20.428 0.079624 0.402905 -0.791624
2010-09-29 05:43:17 51°20.68 2°52.356 20.4322 0.079624 0.402905 -0.861272
2010-09-29 05:43:22 51°20.699 2°52.355 20.4379 0.079728 0.403455 -0.861272
2010-09-29 05:43:27 51°20.718 2°52.353 20.4333 0.079624 0.402916 -0.791624
2010-09-29 05:43:32 51°20.737 2°52.351 20.4466 0.079624 0.402928 -0.861272
2010-09-29 05:43:37 51°20.756 2°52.35 20.4422 0.079728 0.403478 -0.791624
2010-09-29 05:43:42 51°20.775 2°52.347 20.4361 0.079728 0.403478 -0.791624
2010-09-29 05:43:47 51°20.793 2°52.346 20.4506 0.079624 0.40294 -0.861272
2010-09-29 05:43:52 51°20.812 2°52.343 20.4384 0.079624 0.402946 -0.826448
2010-09-29 05:43:57 51°20.831 2°52.341 20.4367 0.079728 0.403484 -0.826448
2010-09-29 05:44:02 51°20.85 2°52.339 20.4337 0.079728 0.403513 -0.861272
2010-09-29 05:44:07 51°20.869 2°52.338 20.442 0.079624 0.402957 -0.861272
2010-09-29 05:44:12 51°20.888 2°52.335 20.4383 0.079624 0.402957 -0.861272
2010-09-29 05:44:17 51°20.907 2°52.333 20.4431 0.079728 0.403501 -0.826448
2010-09-29 05:44:22 51°20.926 2°52.332 20.4402 0.079728 0.403519 -0.861272
2010-09-29 05:44:27 51°20.945 2°52.33 20.4547 0.079728 0.403519 -0.791624
2010-09-29 05:44:32 51°20.964 2°52.328 20.4394 0.079728 0.403519 -0.826448
2010-09-29 05:44:37 51°20.983 2°52.326 20.4412 0.079728 0.403548 -0.791624
2010-09-29 05:44:42 51°21.002 2°52.325 20.4379 0.079728 0.403548 -0.791624
2010-09-29 05:44:47 51°21.021 2°52.323 20.4461 0.079624 0.402992 -0.826448
2010-09-29 05:44:52 51°21.039 2°52.321 20.4402 0.079728 0.403554 -0.861272
2010-09-29 05:44:57 51°21.059 2°52.319 20.45 0.079728 0.403554 -0.791624
2010-09-29 05:45:02 51°21.078 2°52.317 20.4531 0.079728 0.403548 -0.861272
2010-09-29 05:45:07 51°21.096 2°52.314 20.4468 0.079728 0.40356 -0.861272
2010-09-29 05:45:12 51°21.115 2°52.312 20.4586 0.079728 0.40356 -0.861272
2010-09-29 05:45:17 51°21.134 2°52.311 20.4512 0.079728 0.403554 -0.826448
2010-09-29 05:45:22 51°21.153 2°52.308 20.4541 0.079728 0.403571 -0.826448
2010-09-29 05:45:27 51°21.172 2°52.306 20.4499 0.079728 0.403577 -0.791624
2010-09-29 05:45:32 51°21.191 2°52.304 20.4625 0.079728 0.403589 -0.861272
2010-09-29 05:45:37 51°21.21 2°52.302 20.4514 0.079728 0.403606 -0.861272
2010-09-29 05:45:42 51°21.229 2°52.3 20.4557 0.079728 0.403606 -0.861272
2010-09-29 05:45:47 51°21.248 2°52.298 20.4554 0.079728 0.403589 -0.826448
2010-09-29 05:45:52 51°21.267 2°52.296 20.4668 0.079728 0.403606 -0.861272
2010-09-29 05:45:57 51°21.286 2°52.294 20.4574 0.079728 0.403612 -0.791624
2010-09-29 05:46:02 51°21.305 2°52.292 20.4527 0.079832 0.404168 -0.861272
2010-09-29 05:46:07 51°21.323 2°52.29 20.4556 0.079728 0.403618 -0.826448
2010-09-29 05:46:12 51°21.342 2°52.288 20.4563 0.079728 0.403618 -0.826448
2010-09-29 05:46:17 51°21.361 2°52.286 20.4679 0.079728 0.40363 -0.826448
2010-09-29 05:46:22 51°21.38 2°52.284 20.4553 0.079832 0.404186 -0.791624
2010-09-29 05:46:27 51°21.399 2°52.281 20.4624 0.079728 0.403642 -0.826448
2010-09-29 05:46:32 51°21.417 2°52.279 20.4706 0.079728 0.403647 -0.826448
2010-09-29 05:46:37 51°21.436 2°52.277 20.4629 0.079832 0.404203 -0.826448
2010-09-29 05:46:42 51°21.455 2°52.275 20.4671 0.079832 0.404203 -0.826448
2010-09-29 05:46:47 51°21.474 2°52.273 20.4607 0.079728 0.403659 -0.861272
2010-09-29 05:46:52 51°21.493 2°52.271 20.4686 0.079832 0.404203 -0.826448
2010-09-29 05:46:57 51°21.511 2°52.269 20.474 0.079728 0.403665 -0.861272
2010-09-29 05:47:02 51°21.53 2°52.267 20.4637 0.079832 0.404215 -0.861272
2010-09-29 05:47:07 51°21.549 2°52.265 20.4642 0.079832 0.404233 -0.826448
2010-09-29 05:47:12 51°21.568 2°52.263 20.4654 0.079832 0.404233 -0.826448
2010-09-29 05:47:17 51°21.587 2°52.261 20.4744 0.079832 0.404221 -0.826448
2010-09-29 05:47:22 51°21.606 2°52.26 20.4629 0.079832 0.404244 -0.861272
2010-09-29 05:47:28 51°21.628 2°52.257 20.4728 0.079832 0.404238 -0.861272
2010-09-29 05:47:32 51°21.644 2°52.256 20.4683 0.079832 0.40425 -0.861272
2010-09-29 05:47:37 51°21.662 2°52.254 20.4675 0.079832 0.404256 -0.826448
2010-09-29 05:47:42 51°21.681 2°52.253 20.4711 0.079832 0.404256 -0.826448
2010-09-29 05:47:47 51°21.701 2°52.251 20.4768 0.079832 0.404256 -0.861272
2010-09-29 05:47:52 51°21.72 2°52.251 20.4795 0.079832 0.404262 -0.826448
2010-09-29 05:47:57 51°21.739 2°52.249 20.4699 0.079832 0.404279 -0.896096
2010-09-29 05:48:02 51°21.758 2°52.251 20.4748 0.079832 0.404262 -0.826448
2010-09-29 05:48:07 51°21.777 2°52.25 20.4759 0.079832 0.404268 -0.826448
2010-09-29 05:48:12 51°21.797 2°52.253 20.4821 0.079832 0.404268 -0.826448
2010-09-29 05:48:17 51°21.816 2°52.253 20.4702 0.079832 0.404291 -0.826448
2010-09-29 05:48:22 51°21.836 2°52.256 20.4811 0.079832 0.404279 -0.826448
2010-09-29 05:48:27 51°21.855 2°52.257 20.4726 0.079832 0.404309 -0.826448
2010-09-29 05:48:32 51°21.875 2°52.259 20.4791 0.079832 0.404309 -0.826448
2010-09-29 05:48:37 51°21.894 2°52.261 20.4794 0.079832 0.404309 -0.791624
2010-09-29 05:48:42 51°21.914 2°52.263 20.4837 0.079832 0.404309 -0.791624
2010-09-29 05:48:47 51°21.933 2°52.265 20.4829 0.079832 0.40432 -0.826448
2010-09-29 05:48:52 51°21.953 2°52.268 20.4839 0.079832 0.404326 -0.826448
2010-09-29 05:48:57 51°21.972 2°52.269 20.4818 0.079832 0.404326 -0.791624
2010-09-29 05:49:02 51°21.992 2°52.27 20.4835 0.079832 0.404344 -0.826448
2010-09-29 05:49:07 51°22.011 2°52.271 20.4835 0.079832 0.404332 -0.826448
2010-09-29 05:49:12 51°22.031 2°52.274 20.4853 0.079832 0.404332 -0.826448
2010-09-29 05:49:17 51°22.05 2°52.275 20.4917 0.079832 0.40435 -0.826448
2010-09-29 05:49:22 51°22.07 2°52.277 20.482 0.079832 0.40435 -0.826448
2010-09-29 05:49:27 51°22.089 2°52.279 20.485 0.079832 0.404361 -0.826448
2010-09-29 05:49:32 51°22.109 2°52.281 20.4958 0.079832 0.404367 -0.826448
2010-09-29 05:49:37 51°22.128 2°52.282 20.4932 0.079936 0.404918 -0.791624
2010-09-29 05:49:42 51°22.147 2°52.284 20.487 0.079936 0.404918 -0.791624
2010-09-29 05:49:47 51°22.167 2°52.285 20.4872 0.079832 0.404373 -0.826448
2010-09-29 05:49:53 51°22.19 2°52.288 20.4832 0.079832 0.404367 -0.826448
2010-09-29 05:49:57 51°22.206 2°52.289 20.4779 0.079936 0.404929 -0.826448
2010-09-29 05:50:02 51°22.225 2°52.292 20.4919 0.079832 0.404391 -0.826448
2010-09-29 05:50:07 51°22.245 2°52.292 20.4911 0.079832 0.404402 -0.861272
2010-09-29 05:50:12 51°22.264 2°52.294 20.492 0.079832 0.404402 -0.861272
2010-09-29 05:50:17 51°22.284 2°52.297 20.501 0.079936 0.404947 -0.861272
2010-09-29 05:50:22 51°22.303 2°52.298 20.496 0.079936 0.404959 -0.826448
2010-09-29 05:50:27 51°22.322 2°52.301 20.4927 0.079936 0.404947 -0.826448
2010-09-29 05:50:32 51°22.342 2°52.303 20.4956 0.079936 0.404965 -0.861272
2010-09-29 05:50:37 51°22.361 2°52.305 20.4939 0.079936 0.404965 -0.826448
2010-09-29 05:50:42 51°22.381 2°52.307 20.4972 0.079936 0.404965 -0.826448
2010-09-29 05:50:47 51°22.401 2°52.309 20.4951 0.079832 0.40442 -0.826448
2010-09-29 05:50:52 51°22.42 2°52.31 20.4966 0.079936 0.40497 -0.826448
2010-09-29 05:50:57 51°22.44 2°52.312 20.4995 0.079936 0.404982 -0.826448
2010-09-29 05:51:02 51°22.459 2°52.314 20.5012 0.079936 0.40497 -0.826448
2010-09-29 05:51:07 51°22.479 2°52.315 20.4986 0.079936 0.404988 -0.861272
2010-09-29 05:51:12 51°22.499 2°52.318 20.51 0.079936 0.404988 -0.861272
2010-09-29 05:51:17 51°22.518 2°52.319 20.51 0.079936 0.405 -0.826448
2010-09-29 05:51:22 51°22.538 2°52.321 20.4953 0.079936 0.405012 -0.861272
2010-09-29 05:51:27 51°22.557 2°52.322 20.5078 0.079936 0.405017 -0.826448
2010-09-29 05:51:32 51°22.576 2°52.324 20.5082 0.079936 0.405006 -0.826448
2010-09-29 05:51:37 51°22.596 2°52.325 20.5006 0.079936 0.405035 -0.826448
2010-09-29 05:51:42 51°22.616 2°52.327 20.5104 0.079936 0.405035 -0.826448
2010-09-29 05:51:47 51°22.635 2°52.327 20.5149 0.079936 0.405023 -0.826448
2010-09-29 05:51:53 51°22.658 2°52.329 20.5159 0.079936 0.405035 -0.826448
2010-09-29 05:51:57 51°22.674 2°52.33 20.5025 0.079936 0.405029 -0.826448
2010-09-29 05:52:02 51°22.693 2°52.331 20.5045 0.079936 0.405047 -0.826448
2010-09-29 05:52:07 51°22.713 2°52.332 20.498 0.079936 0.405059 -0.826448
2010-09-29 05:52:13 51°22.736 2°52.334 20.5114 0.079936 0.405059 -0.826448
2010-09-29 05:52:17 51°22.751 2°52.335 20.5111 0.079936 0.405053 -0.826448
2010-09-29 05:52:22 51°22.77 2°52.335 20.5062 0.079936 0.405064 -0.826448
2010-09-29 05:52:27 51°22.789 2°52.337 20.5145 0.079936 0.405064 -0.791624
2010-09-29 05:52:32 51°22.809 2°52.338 20.5143 0.079936 0.405064 -0.861272
2010-09-29 05:52:37 51°22.828 2°52.339 20.5037 0.079936 0.40507 -0.826448
2010-09-29 05:52:42 51°22.847 2°52.34 20.5186 0.079936 0.40507 -0.826448
2010-09-29 05:52:47 51°22.866 2°52.341 20.5095 0.079936 0.40507 -0.826448
2010-09-29 05:52:52 51°22.886 2°52.343 20.5125 0.079936 0.40507 -0.791624
2010-09-29 05:52:57 51°22.905 2°52.344 20.5078 0.079936 0.405076 -0.826448
2010-09-29 05:53:02 51°22.925 2°52.345 20.5185 0.079936 0.405088 -0.826448
2010-09-29 05:53:07 51°22.944 2°52.347 20.5041 0.079936 0.405088 -0.791624
2010-09-29 05:53:12 51°22.964 2°52.348 20.5147 0.079936 0.405088 -0.791624
2010-09-29 05:53:17 51°22.983 2°52.35 20.5142 0.079936 0.405088 -0.861272
2010-09-29 05:53:22 51°23.002 2°52.351 20.5229 0.08004 0.405656 -0.861272
2010-09-29 05:53:28 51°23.025 2°52.353 20.5129 0.079936 0.405094 -0.861272
2010-09-29 05:53:32 51°23.041 2°52.354 20.5113 0.08004 0.405662 -0.826448
2010-09-29 05:53:37 51°23.06 2°52.355 20.5259 0.079936 0.405111 -0.826448
2010-09-29 05:53:42 51°23.079 2°52.356 20.5119 0.079936 0.405111 -0.826448
2010-09-29 05:53:47 51°23.099 2°52.358 20.5083 0.08004 0.405662 -0.791624
2010-09-29 05:53:52 51°23.118 2°52.359 20.5093 0.079936 0.405123 -0.826448
2010-09-29 05:53:57 51°23.137 2°52.361 20.52 0.079936 0.405135 -0.861272
2010-09-29 05:54:02 51°23.157 2°52.362 20.5183 0.079936 0.405123 -0.826448
2010-09-29 05:54:07 51°23.176 2°52.364 20.5186 0.08004 0.40568 -0.826448
2010-09-29 05:54:12 51°23.196 2°52.365 20.5222 0.08004 0.40568 -0.826448
2010-09-29 05:54:17 51°23.215 2°52.367 20.5146 0.08004 0.405686 -0.826448
2010-09-29 05:54:22 51°23.235 2°52.368 20.5196 0.079936 0.405129 -0.826448
2010-09-29 05:54:27 51°23.254 2°52.37 20.5192 0.08004 0.405703 -0.826448
2010-09-29 05:54:33 51°23.278 2°52.371 20.5169 0.08004 0.405697 -0.826448
2010-09-29 05:54:37 51°23.293 2°52.373 20.5222 0.079936 0.405147 -0.826448
2010-09-29 05:54:42 51°23.313 2°52.374 20.5218 0.079936 0.405147 -0.826448
2010-09-29 05:54:47 51°23.333 2°52.376 20.5194 0.08004 0.405692 -0.826448
2010-09-29 05:54:52 51°23.353 2°52.376 20.528 0.08004 0.405692 -0.826448
2010-09-29 05:54:57 51°23.372 2°52.378 20.5239 0.08004 0.405709 -0.826448
2010-09-29 05:55:02 51°23.392 2°52.38 20.524 0.08004 0.405709 -0.826448
2010-09-29 05:55:07 51°23.412 2°52.382 20.5332 0.08004 0.405703 -0.791624
2010-09-29 05:55:12 51°23.432 2°52.383 20.5277 0.08004 0.405703 -0.791624
2010-09-29 05:55:17 51°23.452 2°52.385 20.5345 0.08004 0.405715 -0.826448
2010-09-29 05:55:22 51°23.472 2°52.385 20.5311 0.08004 0.405727 -0.826448
2010-09-29 05:55:27 51°23.491 2°52.387 20.5406 0.08004 0.405715 -0.826448
2010-09-29 05:55:32 51°23.511 2°52.387 20.537 0.08004 0.405727 -0.861272
2010-09-29 05:55:37 51°23.531 2°52.389 20.5372 0.08004 0.405739 -0.826448
2010-09-29 05:55:42 51°23.551 2°52.39 20.532 0.08004 0.405739 -0.826448
2010-09-29 05:55:47 51°23.571 2°52.392 20.5422 0.08004 0.405745 -0.861272
2010-09-29 05:55:52 51°23.59 2°52.393 20.5442 0.08004 0.405745 -0.861272
2010-09-29 05:55:57 51°23.61 2°52.394 20.5356 0.08004 0.405733 -0.791624
2010-09-29 05:56:02 51°23.63 2°52.395 20.5369 0.08004 0.405756 -0.861272
2010-09-29 05:56:07 51°23.65 2°52.397 20.5496 0.08004 0.405739 -0.826448
2010-09-29 05:56:12 51°23.67 2°52.398 20.5412 0.08004 0.405739 -0.826448
2010-09-29 05:56:17 51°23.69 2°52.399 20.5432 0.08004 0.40578 -0.826448
2010-09-29 05:56:22 51°23.709 2°52.4 20.5378 0.08004 0.405762 -0.826448
2010-09-29 05:56:27 51°23.729 2°52.401 20.5318 0.08004 0.405774 -0.826448
2010-09-29 05:56:32 51°23.749 2°52.402 20.545 0.08004 0.405768 -0.791624
2010-09-29 05:56:37 51°23.769 2°52.403 20.541 0.08004 0.405774 -0.826448
2010-09-29 05:56:42 51°23.788 2°52.404 20.5556 0.08004 0.405774 -0.826448
2010-09-29 05:56:47 51°23.808 2°52.405 20.5403 0.08004 0.40578 -0.791624
2010-09-29 05:56:52 51°23.828 2°52.407 20.5539 0.08004 0.40578 -0.861272
2010-09-29 05:56:57 51°23.848 2°52.408 20.5446 0.08004 0.405803 -0.791624
2010-09-29 05:57:02 51°23.868 2°52.409 20.5485 0.08004 0.405798 -0.826448
2010-09-29 05:57:07 51°23.888 2°52.409 20.5492 0.08004 0.405786 -0.826448
2010-09-29 05:57:12 51°23.907 2°52.41 20.5566 0.08004 0.405786 -0.826448
2010-09-29 05:57:17 51°23.927 2°52.411 20.548 0.08004 0.405809 -0.826448
2010-09-29 05:57:22 51°23.947 2°52.412 20.5547 0.08004 0.405792 -0.826448
2010-09-29 05:57:27 51°23.966 2°52.413 20.5536 0.08004 0.405798 -0.826448
2010-09-29 05:57:32 51°23.986 2°52.414 20.5624 0.08004 0.405798 -0.826448
2010-09-29 05:57:37 51°24.006 2°52.414 20.5613 0.08004 0.405821 -0.826448
2010-09-29 05:57:42 51°24.025 2°52.415 20.5562 0.08004 0.405821 -0.826448
2010-09-29 05:57:47 51°24.045 2°52.416 20.5536 0.08004 0.405821 -0.826448
2010-09-29 05:57:52 51°24.064 2°52.417 20.5567 0.08004 0.405821 -0.826448
2010-09-29 05:57:57 51°24.084 2°52.418 20.5559 0.08004 0.405827 -0.826448
2010-09-29 05:58:02 51°24.103 2°52.419 20.5667 0.08004 0.405833 -0.791624
2010-09-29 05:58:07 51°24.123 2°52.419 20.5612 0.08004 0.405839 -0.826448
2010-09-29 05:58:12 51°24.143 2°52.42 20.5594 0.08004 0.405839 -0.826448
2010-09-29 05:58:17 51°24.162 2°52.42 20.5537 0.08004 0.405833 -0.826448
2010-09-29 05:58:22 51°24.182 2°52.421 20.5592 0.08004 0.405839 -0.826448
2010-09-29 05:58:27 51°24.201 2°52.422 20.5628 0.08004 0.405856 -0.826448
2010-09-29 05:58:32 51°24.221 2°52.422 20.565 0.08004 0.405839 -0.861272
2010-09-29 05:58:37 51°24.24 2°52.422 20.5552 0.08004 0.405851 -0.826448
2010-09-29 05:58:42 51°24.26 2°52.423 20.5587 0.08004 0.405851 -0.826448
2010-09-29 05:58:47 51°24.279 2°52.423 20.5718 0.08004 0.405845 -0.861272
2010-09-29 05:58:52 51°24.299 2°52.423 20.5664 0.080144 0.406431 -0.826448
2010-09-29 05:58:57 51°24.318 2°52.424 20.572 0.08004 0.405856 -0.826448
2010-09-29 05:59:02 51°24.338 2°52.424 20.5653 0.08004 0.40588 -0.861272
2010-09-29 05:59:07 51°24.357 2°52.424 20.5748 0.08004 0.405868 -0.826448
2010-09-29 05:59:13 51°24.38 2°52.424 20.5668 0.08004 0.405868 -0.826448
2010-09-29 05:59:17 51°24.396 2°52.425 20.5726 0.08004 0.405868 -0.826448
2010-09-29 05:59:22 51°24.416 2°52.425 20.5761 0.080144 0.406431 -0.791624
2010-09-29 05:59:27 51°24.435 2°52.426 20.5677 0.08004 0.405892 -0.826448
2010-09-29 05:59:32 51°24.454 2°52.426 20.5778 0.080144 0.406443 -0.791624
2010-09-29 05:59:37 51°24.474 2°52.427 20.5714 0.08004 0.405904 -0.826448
2010-09-29 05:59:42 51°24.493 2°52.427 20.5728 0.08004 0.405904 -0.826448
2010-09-29 05:59:47 51°24.513 2°52.427 20.5729 0.08004 0.405898 -0.791624
2010-09-29 05:59:52 51°24.532 2°52.427 20.5747 0.080144 0.406449 -0.826448
2010-09-29 05:59:57 51°24.552 2°52.429 20.5749 0.080144 0.406461 -0.791624
2010-09-29 06:00:02 51°24.571 2°52.429 20.5881 0.08004 0.405915 -0.791624
2010-09-29 06:00:07 51°24.59 2°52.429 20.5747 0.080144 0.406472 -0.826448
2010-09-29 06:00:12 51°24.609 2°52.43 20.5866 0.080144 0.406472 -0.826448
2010-09-29 06:00:17 51°24.629 2°52.429 20.5772 0.080144 0.406466 -0.896096
2010-09-29 06:00:22 51°24.648 2°52.43 20.5818 0.080144 0.406472 -0.826448
2010-09-29 06:00:28 51°24.671 2°52.43 20.5785 0.080144 0.406484 -0.861272
2010-09-29 06:00:32 51°24.687 2°52.431 20.5872 0.080144 0.406484 -0.826448
2010-09-29 06:00:37 51°24.706 2°52.431 20.5839 0.080144 0.40649 -0.861272
2010-09-29 06:00:42 51°24.726 2°52.431 20.583 0.080144 0.40649 -0.861272
2010-09-29 06:00:47 51°24.745 2°52.431 20.5923 0.080144 0.406496 -0.826448
2010-09-29 06:00:52 51°24.764 2°52.432 20.5859 0.080144 0.406502 -0.826448
2010-09-29 06:00:57 51°24.784 2°52.432 20.5867 0.080144 0.406502 -0.826448
2010-09-29 06:01:02 51°24.803 2°52.433 20.5944 0.080144 0.406502 -0.826448
2010-09-29 06:01:07 51°24.822 2°52.433 20.5915 0.080144 0.40652 -0.791624
2010-09-29 06:01:13 51°24.846 2°52.432 20.5954 0.080144 0.40652 -0.791624
2010-09-29 06:01:17 51°24.861 2°52.433 20.5924 0.080144 0.406508 -0.861272
2010-09-29 06:01:22 51°24.881 2°52.433 20.5955 0.080144 0.406514 -0.861272
2010-09-29 06:01:27 51°24.901 2°52.433 20.59 0.080144 0.406525 -0.826448
2010-09-29 06:01:32 51°24.92 2°52.434 20.5929 0.080144 0.406537 -0.826448
2010-09-29 06:01:37 51°24.939 2°52.434 20.5894 0.080144 0.406531 -0.861272
2010-09-29 06:01:42 51°24.958 2°52.434 20.5953 0.080144 0.406531 -0.861272
2010-09-29 06:01:47 51°24.977 2°52.433 20.5892 0.080144 0.406543 -0.791624
2010-09-29 06:01:52 51°24.997 2°52.433 20.5958 0.080144 0.406543 -0.826448
2010-09-29 06:01:57 51°25.016 2°52.432 20.6039 0.080144 0.406573 -0.861272
2010-09-29 06:02:02 51°25.035 2°52.432 20.6068 0.080144 0.406549 -0.826448
2010-09-29 06:02:07 51°25.054 2°52.431 20.5928 0.080144 0.406573 -0.861272
2010-09-29 06:02:12 51°25.073 2°52.431 20.6015 0.080144 0.406573 -0.861272
2010-09-29 06:02:17 51°25.092 2°52.43 20.5998 0.080144 0.406573 -0.861272
2010-09-29 06:02:22 51°25.111 2°52.43 20.5977 0.080144 0.406567 -0.791624
2010-09-29 06:02:27 51°25.13 2°52.429 20.5963 0.080144 0.406584 -0.826448
2010-09-29 06:02:32 51°25.149 2°52.429 20.6064 0.080144 0.406579 -0.826448
2010-09-29 06:02:37 51°25.168 2°52.428 20.6109 0.080144 0.406602 -0.826448
2010-09-29 06:02:42 51°25.187 2°52.428 20.6043 0.080144 0.406602 -0.826448
2010-09-29 06:02:47 51°25.206 2°52.428 20.6012 0.080144 0.406608 -0.826448
2010-09-29 06:02:52 51°25.226 2°52.429 20.6028 0.080144 0.406596 -0.791624
2010-09-29 06:02:57 51°25.245 2°52.43 20.6037 0.080144 0.406608 -0.791624
2010-09-29 06:03:02 51°25.265 2°52.43 20.6027 0.080144 0.406626 -0.826448
2010-09-29 06:03:07 51°25.284 2°52.431 20.6013 0.080144 0.406602 -0.826448
2010-09-29 06:03:12 51°25.304 2°52.431 20.6078 0.080144 0.406602 -0.826448
2010-09-29 06:03:17 51°25.323 2°52.431 20.6134 0.080144 0.40662 -0.826448
2010-09-29 06:03:22 51°25.342 2°52.432 20.6049 0.080144 0.406638 -0.791624
2010-09-29 06:03:27 51°25.362 2°52.433 20.6107 0.080144 0.406638 -0.826448
2010-09-29 06:03:33 51°25.385 2°52.434 20.6175 0.080144 0.406638 -0.861272
2010-09-29 06:03:37 51°25.401 2°52.435 20.6193 0.080144 0.406649 -0.826448
2010-09-29 06:03:42 51°25.42 2°52.437 20.6161 0.080144 0.406649 -0.826448
2010-09-29 06:03:47 51°25.439 2°52.44 20.6224 0.080144 0.406655 -0.861272
2010-09-29 06:03:52 51°25.458 2°52.443 20.6163 0.080144 0.406667 -0.826448
2010-09-29 06:03:57 51°25.477 2°52.446 20.6209 0.080144 0.406655 -0.826448
2010-09-29 06:04:02 51°25.496 2°52.45 20.6192 0.080248 0.407225 -0.791624
2010-09-29 06:04:07 51°25.516 2°52.454 20.6282 0.080144 0.406697 -0.826448
2010-09-29 06:04:12 51°25.535 2°52.46 20.618 0.080144 0.406697 -0.826448
2010-09-29 06:04:17 51°25.555 2°52.464 20.6162 0.080248 0.40723 -0.791624
2010-09-29 06:04:22 51°25.574 2°52.47 20.617 0.080144 0.406703 -0.861272
2010-09-29 06:04:27 51°25.593 2°52.476 20.6219 0.080248 0.407272 -0.826448
2010-09-29 06:04:32 51°25.613 2°52.481 20.6255 0.080248 0.407278 -0.826448
2010-09-29 06:04:37 51°25.632 2°52.486 20.6253 0.080144 0.406709 -0.791624
2010-09-29 06:04:42 51°25.651 2°52.492 20.6239 0.080144 0.406709 -0.791624
2010-09-29 06:04:47 51°25.67 2°52.499 20.6235 0.080248 0.407272 -0.826448
2010-09-29 06:04:52 51°25.689 2°52.506 20.6261 0.080144 0.406744 -0.826448
2010-09-29 06:04:57 51°25.708 2°52.513 20.6228 0.080248 0.407319 -0.791624
2010-09-29 06:05:02 51°25.727 2°52.521 20.6306 0.080144 0.40675 -0.826448
2010-09-29 06:05:07 51°25.746 2°52.528 20.6373 0.080248 0.407337 -0.826448
2010-09-29 06:05:12 51°25.765 2°52.536 20.6303 0.080248 0.407337 -0.826448
2010-09-29 06:05:17 51°25.784 2°52.544 20.6328 0.080144 0.406797 -0.826448
2010-09-29 06:05:22 51°25.803 2°52.551 20.6308 0.080248 0.407355 -0.826448
2010-09-29 06:05:27 51°25.822 2°52.559 20.6376 0.080248 0.407349 -0.826448
2010-09-29 06:05:32 51°25.84 2°52.567 20.634 0.080248 0.407355 -0.791624
2010-09-29 06:05:37 51°25.86 2°52.574 20.6377 0.080248 0.407373 -0.791624
2010-09-29 06:05:42 51°25.878 2°52.582 20.6378 0.080248 0.407373 -0.791624
2010-09-29 06:05:47 51°25.898 2°52.588 20.6347 0.080248 0.407384 -0.826448
2010-09-29 06:05:52 51°25.917 2°52.596 20.6444 0.080248 0.407378 -0.826448
2010-09-29 06:05:57 51°25.936 2°52.603 20.6353 0.080248 0.407408 -0.826448
2010-09-29 06:06:02 51°25.955 2°52.611 20.6413 0.080248 0.407414 -0.791624
2010-09-29 06:06:07 51°25.974 2°52.618 20.6447 0.080248 0.407408 -0.826448
2010-09-29 06:06:12 51°25.992 2°52.626 20.648 0.080248 0.407408 -0.826448
2010-09-29 06:06:17 51°26.011 2°52.634 20.6436 0.080248 0.407444 -0.826448
2010-09-29 06:06:22 51°26.031 2°52.641 20.6436 0.080248 0.407432 -0.791624
2010-09-29 06:06:27 51°26.05 2°52.649 20.6455 0.080248 0.407444 -0.861272
2010-09-29 06:06:32 51°26.069 2°52.656 20.6445 0.080248 0.407455 -0.826448
2010-09-29 06:06:37 51°26.087 2°52.665 20.6449 0.080248 0.407461 -0.861272
2010-09-29 06:06:42 51°26.106 2°52.672 20.6497 0.080248 0.407461 -0.861272
2010-09-29 06:06:47 51°26.126 2°52.679 20.6561 0.080248 0.407473 -0.826448
2010-09-29 06:06:52 51°26.144 2°52.686 20.6567 0.080248 0.407485 -0.861272
2010-09-29 06:06:57 51°26.163 2°52.694 20.6586 0.080248 0.407479 -0.826448
2010-09-29 06:07:02 51°26.183 2°52.701 20.651 0.080248 0.407521 -0.791624
2010-09-29 06:07:07 51°26.202 2°52.708 20.6514 0.080248 0.407509 -0.826448
2010-09-29 06:07:12 51°26.221 2°52.715 20.6514 0.080248 0.407509 -0.826448
2010-09-29 06:07:17 51°26.24 2°52.722 20.6532 0.080248 0.407515 -0.861272
2010-09-29 06:07:22 51°26.259 2°52.73 20.6611 0.080248 0.407533 -0.791624
2010-09-29 06:07:27 51°26.278 2°52.737 20.6587 0.080248 0.407533 -0.791624
2010-09-29 06:07:32 51°26.297 2°52.744 20.6579 0.080248 0.40755 -0.791624
2010-09-29 06:07:37 51°26.316 2°52.752 20.6551 0.080248 0.407562 -0.826448
2010-09-29 06:07:42 51°26.335 2°52.759 20.6639 0.080248 0.407562 -0.826448
2010-09-29 06:07:47 51°26.354 2°52.767 20.6598 0.080248 0.407574 -0.826448
2010-09-29 06:07:52 51°26.373 2°52.774 20.6623 0.080248 0.40758 -0.791624
2010-09-29 06:07:57 51°26.391 2°52.782 20.663 0.080248 0.407568 -0.826448
2010-09-29 06:08:02 51°26.411 2°52.788 20.6651 0.080248 0.40761 -0.826448
2010-09-29 06:08:07 51°26.43 2°52.796 20.664 0.080248 0.407598 -0.826448
2010-09-29 06:08:13 51°26.453 2°52.805 20.6669 0.080248 0.407598 -0.826448
2010-09-29 06:08:17 51°26.468 2°52.812 20.6637 0.080248 0.40761 -0.826448
2010-09-29 06:08:22 51°26.487 2°52.819 20.6687 0.080248 0.40761 -0.826448
2010-09-29 06:08:27 51°26.505 2°52.826 20.6734 0.080248 0.407633 -0.861272
2010-09-29 06:08:32 51°26.525 2°52.833 20.6684 0.080248 0.407639 -0.826448
2010-09-29 06:08:37 51°26.544 2°52.84 20.673 0.080248 0.407645 -0.826448
2010-09-29 06:08:42 51°26.563 2°52.849 20.6751 0.080248 0.407645 -0.826448
2010-09-29 06:08:47 51°26.582 2°52.855 20.6728 0.080248 0.407657 -0.791624
2010-09-29 06:08:52 51°26.601 2°52.863 20.6765 0.080248 0.407663 -0.826448
2010-09-29 06:08:57 51°26.62 2°52.87 20.6786 0.080248 0.407675 -0.791624
2010-09-29 06:09:02 51°26.639 2°52.878 20.6757 0.080248 0.407675 -0.826448
2010-09-29 06:09:07 51°26.658 2°52.885 20.6709 0.080352 0.408233 -0.791624
2010-09-29 06:09:12 51°26.678 2°52.892 20.6817 0.080352 0.408233 -0.791624
2010-09-29 06:09:17 51°26.697 2°52.9 20.6755 0.080352 0.408251 -0.826448
2010-09-29 06:09:22 51°26.716 2°52.907 20.6855 0.080352 0.408251 -0.826448
2010-09-29 06:09:28 51°26.739 2°52.915 20.6818 0.080248 0.407722 -0.791624
2010-09-29 06:09:32 51°26.754 2°52.922 20.6783 0.080352 0.408263 -0.826448
2010-09-29 06:09:37 51°26.773 2°52.928 20.6812 0.080248 0.407728 -0.861272
2010-09-29 06:09:42 51°26.792 2°52.935 20.6843 0.080248 0.407728 -0.861272
2010-09-29 06:09:47 51°26.811 2°52.941 20.6839 0.080352 0.408275 -0.861272
2010-09-29 06:09:52 51°26.83 2°52.948 20.6859 0.080352 0.408286 -0.826448
2010-09-29 06:09:57 51°26.849 2°52.954 20.684 0.080352 0.408292 -0.826448
2010-09-29 06:10:02 51°26.868 2°52.961 20.6869 0.080352 0.408298 -0.791624
2010-09-29 06:10:07 51°26.887 2°52.967 20.6883 0.080352 0.40831 -0.826448
2010-09-29 06:10:13 51°26.91 2°52.976 20.6922 0.080352 0.40831 -0.826448
2010-09-29 06:10:17 51°26.925 2°52.98 20.6948 0.080352 0.408316 -0.826448
2010-09-29 06:10:22 51°26.944 2°52.988 20.6924 0.080352 0.408316 -0.791624
2010-09-29 06:10:27 51°26.963 2°52.993 20.6962 0.080352 0.408328 -0.826448
2010-09-29 06:10:32 51°26.981 2°53.001 20.6925 0.080352 0.408346 -0.791624
2010-09-29 06:10:37 51°27 2°53.007 20.6965 0.080352 0.408364 -0.791624
2010-09-29 06:10:42 51°27.019 2°53.014 20.6917 0.080352 0.408364 -0.791624
2010-09-29 06:10:47 51°27.038 2°53.02 20.6945 0.080352 0.408352 -0.826448
2010-09-29 06:10:52 51°27.057 2°53.026 20.6945 0.080352 0.40837 -0.826448
2010-09-29 06:10:57 51°27.076 2°53.033 20.6965 0.080352 0.408393 -0.826448
2010-09-29 06:11:02 51°27.094 2°53.039 20.695 0.080352 0.408387 -0.791624
2010-09-29 06:11:07 51°27.113 2°53.046 20.7001 0.080352 0.408387 -0.826448
2010-09-29 06:11:12 51°27.132 2°53.052 20.6992 0.080352 0.408387 -0.826448
2010-09-29 06:11:17 51°27.151 2°53.059 20.7028 0.080352 0.408393 -0.791624
2010-09-29 06:11:22 51°27.17 2°53.065 20.703 0.080352 0.408405 -0.826448
2010-09-29 06:11:27 51°27.189 2°53.071 20.7038 0.080352 0.408423 -0.791624
2010-09-29 06:11:32 51°27.208 2°53.078 20.7061 0.080352 0.408423 -0.826448
2010-09-29 06:11:37 51°27.227 2°53.084 20.7037 0.080352 0.408447 -0.791624
2010-09-29 06:11:42 51°27.246 2°53.09 20.7038 0.080352 0.408447 -0.791624
2010-09-29 06:11:47 51°27.264 2°53.097 20.7112 0.080352 0.408441 -0.826448
2010-09-29 06:11:52 51°27.284 2°53.103 20.7065 0.080352 0.408465 -0.826448
2010-09-29 06:11:57 51°27.303 2°53.111 20.7085 0.080352 0.408471 -0.826448
2010-09-29 06:12:02 51°27.321 2°53.117 20.7096 0.080352 0.408465 -0.791624
2010-09-29 06:12:07 51°27.34 2°53.124 20.713 0.080352 0.408471 -0.861272
2010-09-29 06:12:12 51°27.359 2°53.13 20.7143 0.080352 0.408471 -0.861272
2010-09-29 06:12:17 51°27.378 2°53.137 20.7121 0.080352 0.408489 -0.791624
2010-09-29 06:12:22 51°27.397 2°53.142 20.7123 0.080352 0.408489 -0.826448
2010-09-29 06:12:27 51°27.416 2°53.149 20.7187 0.080456 0.409065 -0.826448
2010-09-29 06:12:33 51°27.438 2°53.157 20.7195 0.080352 0.408495 -0.826448
2010-09-29 06:12:37 51°27.454 2°53.161 20.7159 0.080456 0.409077 -0.791624
2010-09-29 06:12:42 51°27.472 2°53.168 20.7218 0.080456 0.409077 -0.791624
2010-09-29 06:12:47 51°27.491 2°53.174 20.7228 0.080352 0.408512 -0.826448
2010-09-29 06:12:52 51°27.51 2°53.179 20.724 0.080352 0.408542 -0.791624
2010-09-29 06:12:57 51°27.529 2°53.185 20.7257 0.080352 0.408554 -0.826448
2010-09-29 06:13:02 51°27.548 2°53.191 20.7243 0.080456 0.409101 -0.826448
2010-09-29 06:13:07 51°27.566 2°53.198 20.7236 0.080456 0.409113 -0.791624
2010-09-29 06:13:12 51°27.585 2°53.204 20.7287 0.080456 0.409113 -0.791624
2010-09-29 06:13:17 51°27.604 2°53.21 20.7269 0.080352 0.408566 -0.826448
2010-09-29 06:13:22 51°27.623 2°53.217 20.7319 0.080456 0.409119 -0.826448
2010-09-29 06:13:27 51°27.642 2°53.223 20.7307 0.080352 0.408596 -0.826448
2010-09-29 06:13:32 51°27.661 2°53.229 20.7333 0.080456 0.409148 -0.826448
2010-09-29 06:13:37 51°27.68 2°53.235 20.7331 0.080456 0.40916 -0.826448
2010-09-29 06:13:42 51°27.699 2°53.24 20.7356 0.080456 0.40916 -0.826448
2010-09-29 06:13:47 51°27.718 2°53.246 20.7367 0.080456 0.40916 -0.861272
2010-09-29 06:13:52 51°27.737 2°53.252 20.7348 0.080456 0.409172 -0.791624
2010-09-29 06:13:57 51°27.756 2°53.258 20.7394 0.080352 0.408631 -0.826448
2010-09-29 06:14:02 51°27.775 2°53.264 20.7365 0.080456 0.409184 -0.791624
2010-09-29 06:14:07 51°27.794 2°53.27 20.7419 0.080456 0.40919 -0.826448
2010-09-29 06:14:12 51°27.812 2°53.276 20.7386 0.080456 0.40919 -0.826448
2010-09-29 06:14:17 51°27.831 2°53.283 20.7417 0.080456 0.409202 -0.826448
2010-09-29 06:14:22 51°27.85 2°53.288 20.7383 0.080456 0.40922 -0.826448
2010-09-29 06:14:27 51°27.869 2°53.296 20.7457 0.080456 0.409226 -0.826448
2010-09-29 06:14:33 51°27.891 2°53.302 20.7452 0.080456 0.40922 -0.826448
2010-09-29 06:14:37 51°27.906 2°53.308 20.7471 0.080456 0.409244 -0.826448
2010-09-29 06:14:42 51°27.925 2°53.314 20.7484 0.080456 0.409244 -0.826448
2010-09-29 06:14:47 51°27.943 2°53.32 20.7467 0.080456 0.409262 -0.826448
2010-09-29 06:14:52 51°27.962 2°53.327 20.7469 0.080456 0.409238 -0.826448
2010-09-29 06:14:57 51°27.981 2°53.333 20.7513 0.080456 0.409274 -0.826448
2010-09-29 06:15:02 51°27.999 2°53.34 20.7488 0.080456 0.409262 -0.826448
2010-09-29 06:15:07 51°28.018 2°53.346 20.7522 0.080456 0.40928 -0.826448
2010-09-29 06:15:12 51°28.037 2°53.352 20.7518 0.080456 0.40928 -0.826448
2010-09-29 06:15:17 51°28.056 2°53.358 20.7543 0.080456 0.409292 -0.791624
2010-09-29 06:15:22 51°28.075 2°53.365 20.7571 0.080456 0.409304 -0.826448
2010-09-29 06:15:27 51°28.094 2°53.371 20.7531 0.080456 0.409298 -0.826448
2010-09-29 06:15:32 51°28.113 2°53.377 20.7569 0.080456 0.409315 -0.791624
2010-09-29 06:15:37 51°28.132 2°53.383 20.7594 0.080456 0.409315 -0.826448
2010-09-29 06:15:42 51°28.151 2°53.389 20.7591 0.080456 0.409315 -0.826448
2010-09-29 06:15:47 51°28.17 2°53.395 20.7599 0.08056 0.409886 -0.791624
2010-09-29 06:15:52 51°28.189 2°53.402 20.7614 0.080456 0.409333 -0.826448
2010-09-29 06:15:57 51°28.209 2°53.408 20.762 0.080456 0.409345 -0.826448
2010-09-29 06:16:02 51°28.228 2°53.414 20.7626 0.080456 0.409363 -0.826448
2010-09-29 06:16:07 51°28.247 2°53.42 20.7645 0.080456 0.409363 -0.791624
2010-09-29 06:16:12 51°28.266 2°53.426 20.7649 0.080456 0.409363 -0.791624
2010-09-29 06:16:17 51°28.285 2°53.433 20.7649 0.08056 0.409922 -0.791624
2010-09-29 06:16:22 51°28.304 2°53.438 20.7672 0.080456 0.409387 -0.826448
2010-09-29 06:16:27 51°28.323 2°53.445 20.7715 0.080456 0.409399 -0.791624
2010-09-29 06:16:32 51°28.343 2°53.451 20.773 0.08056 0.40994 -0.791624
2010-09-29 06:16:37 51°28.361 2°53.458 20.7728 0.08056 0.409964 -0.791624
2010-09-29 06:16:42 51°28.381 2°53.464 20.7697 0.08056 0.409964 -0.791624
2010-09-29 06:16:47 51°28.4 2°53.47 20.7704 0.080456 0.409417 -0.791624
2010-09-29 06:16:52 51°28.419 2°53.476 20.7719 0.08056 0.40997 -0.826448
2010-09-29 06:16:57 51°28.438 2°53.483 20.7751 0.08056 0.409994 -0.791624
2010-09-29 06:17:02 51°28.457 2°53.489 20.775 0.080456 0.409435 -0.791624
2010-09-29 06:17:07 51°28.476 2°53.495 20.7785 0.080456 0.409441 -0.791624
2010-09-29 06:17:12 51°28.495 2°53.502 20.7784 0.080456 0.409441 -0.791624
2010-09-29 06:17:17 51°28.514 2°53.508 20.7775 0.08056 0.409994 -0.826448
2010-09-29 06:17:22 51°28.534 2°53.516 20.7821 0.08056 0.41 -0.791624
2010-09-29 06:17:27 51°28.553 2°53.522 20.7802 0.08056 0.41003 -0.791624
2010-09-29 06:17:32 51°28.572 2°53.529 20.784 0.08056 0.410024 -0.826448
2010-09-29 06:17:37 51°28.591 2°53.535 20.7832 0.08056 0.410042 -0.826448
2010-09-29 06:17:42 51°28.611 2°53.543 20.7859 0.08056 0.410042 -0.826448
2010-09-29 06:17:47 51°28.63 2°53.549 20.7854 0.08056 0.410048 -0.826448
2010-09-29 06:17:52 51°28.649 2°53.556 20.7853 0.08056 0.410054 -0.826448
2010-09-29 06:17:57 51°28.669 2°53.563 20.786 0.08056 0.410084 -0.791624
2010-09-29 06:18:02 51°28.688 2°53.569 20.7891 0.08056 0.410078 -0.826448
2010-09-29 06:18:07 51°28.706 2°53.577 20.7918 0.08056 0.410084 -0.791624
2010-09-29 06:18:12 51°28.726 2°53.583 20.789 0.08056 0.410084 -0.791624
2010-09-29 06:18:17 51°28.745 2°53.591 20.7944 0.08056 0.410084 -0.791624
2010-09-29 06:18:22 51°28.764 2°53.597 20.7921 0.08056 0.41012 -0.791624
2010-09-29 06:18:27 51°28.783 2°53.605 20.7939 0.08056 0.410096 -0.826448
2010-09-29 06:18:32 51°28.801 2°53.611 20.7958 0.08056 0.41012 -0.791624
2010-09-29 06:18:37 51°28.82 2°53.618 20.7966 0.08056 0.410138 -0.791624
2010-09-29 06:18:42 51°28.839 2°53.624 20.7977 0.08056 0.410138 -0.791624
2010-09-29 06:18:47 51°28.859 2°53.631 20.7986 0.08056 0.410138 -0.791624
2010-09-29 06:18:52 51°28.878 2°53.638 20.7991 0.08056 0.410144 -0.826448
2010-09-29 06:18:57 51°28.897 2°53.645 20.7994 0.08056 0.410144 -0.826448
2010-09-29 06:19:02 51°28.916 2°53.651 20.8012 0.080664 0.410721 -0.791624
2010-09-29 06:19:07 51°28.935 2°53.657 20.802 0.08056 0.410168 -0.791624
2010-09-29 06:19:12 51°28.954 2°53.664 20.804 0.08056 0.410168 -0.791624
2010-09-29 06:19:17 51°28.973 2°53.67 20.8056 0.08056 0.410168 -0.791624
2010-09-29 06:19:22 51°28.993 2°53.677 20.8057 0.080664 0.410727 -0.791624
2010-09-29 06:19:27 51°29.012 2°53.684 20.8082 0.080664 0.410739 -0.791624
2010-09-29 06:19:32 51°29.031 2°53.691 20.8097 0.080664 0.410739 -0.861272
2010-09-29 06:19:37 51°29.05 2°53.697 20.8101 0.080664 0.410757 -0.826448
2010-09-29 06:19:42 51°29.069 2°53.703 20.8112 0.080664 0.410757 -0.826448
2010-09-29 06:19:47 51°29.088 2°53.71 20.8124 0.08056 0.41021 -0.826448
2010-09-29 06:19:52 51°29.107 2°53.717 20.8151 0.080664 0.410757 -0.791624
2010-09-29 06:19:57 51°29.126 2°53.724 20.8154 0.080664 0.410769 -0.7568
2010-09-29 06:20:02 51°29.145 2°53.731 20.8166 0.080664 0.410787 -0.826448
2010-09-29 06:20:07 51°29.164 2°53.737 20.8185 0.080664 0.410781 -0.791624
2010-09-29 06:20:12 51°29.183 2°53.744 20.8193 0.080664 0.410781 -0.791624
2010-09-29 06:20:17 51°29.202 2°53.75 20.8205 0.080664 0.410787 -0.826448
2010-09-29 06:20:22 51°29.222 2°53.756 20.8222 0.080664 0.410781 -0.791624
2010-09-29 06:20:27 51°29.241 2°53.763 20.8236 0.080664 0.410787 -0.791624
2010-09-29 06:20:32 51°29.26 2°53.77 20.8243 0.080664 0.410811 -0.791624
2010-09-29 06:20:37 51°29.279 2°53.776 20.8259 0.080664 0.410811 -0.826448
2010-09-29 06:20:42 51°29.298 2°53.783 20.8269 0.080664 0.410811 -0.826448
2010-09-29 06:20:47 51°29.317 2°53.789 20.8288 0.080664 0.410823 -0.791624
2010-09-29 06:20:52 51°29.336 2°53.795 20.8296 0.080664 0.410835 -0.791624
2010-09-29 06:20:57 51°29.355 2°53.802 20.831 0.080664 0.410817 -0.791624
2010-09-29 06:21:02 51°29.374 2°53.808 20.8318 0.080664 0.410829 -0.791624
2010-09-29 06:21:07 51°29.393 2°53.815 20.8327 0.080664 0.410853 -0.791624
2010-09-29 06:21:12 51°29.412 2°53.822 20.834 0.080664 0.410853 -0.791624
2010-09-29 06:21:17 51°29.432 2°53.829 20.8358 0.080664 0.410847 -0.826448
2010-09-29 06:21:22 51°29.451 2°53.836 20.8363 0.080664 0.410871 -0.826448
2010-09-29 06:21:27 51°29.47 2°53.844 20.8375 0.080664 0.410871 -0.791624
2010-09-29 06:21:33 51°29.493 2°53.853 20.8382 0.080664 0.410889 -0.791624
2010-09-29 06:21:37 51°29.508 2°53.861 20.8398 0.080665 0.410907 -0.826448
2010-09-29 06:21:42 51°29.527 2°53.869 20.8417 0.080665 0.410907 -0.826448
2010-09-29 06:21:47 51°29.546 2°53.878 20.8426 0.080664 0.410895 -0.791624
2010-09-29 06:21:52 51°29.565 2°53.887 20.8431 0.080665 0.410919 -0.826448
2010-09-29 06:21:57 51°29.584 2°53.896 20.8449 0.080665 0.410949 -0.791624
2010-09-29 06:22:02 51°29.603 2°53.906 20.8458 0.080769 0.411491 -0.7568
2010-09-29 06:22:07 51°29.622 2°53.915 20.847 0.080769 0.411491 -0.826448
2010-09-29 06:22:12 51°29.641 2°53.924 20.8483 0.080769 0.411491 -0.826448
2010-09-29 06:22:17 51°29.66 2°53.933 20.8489 0.080769 0.411515 -0.791624
2010-09-29 06:22:22 51°29.68 2°53.942 20.8503 0.080665 0.410967 -0.791624
2010-09-29 06:22:27 51°29.699 2°53.952 20.8516 0.080769 0.411539 -0.7568
2010-09-29 06:22:32 51°29.718 2°53.961 20.8526 0.080769 0.411539 -0.791624
2010-09-29 06:22:37 51°29.737 2°53.969 20.8531 0.080665 0.411003 -0.826448
2010-09-29 06:22:42 51°29.756 2°53.979 20.8542 0.080665 0.411003 -0.826448
2010-09-29 06:22:47 51°29.775 2°53.988 20.856 0.080769 0.411575 -0.7568
2010-09-29 06:22:52 51°29.795 2°53.998 20.8567 0.080769 0.411563 -0.826448
2010-09-29 06:22:57 51°29.814 2°54.006 20.8582 0.080769 0.411587 -0.791624
2010-09-29 06:23:02 51°29.833 2°54.015 20.8581 0.080769 0.411587 -0.826448
2010-09-29 06:23:07 51°29.853 2°54.024 20.8598 0.080769 0.411611 -0.826448
2010-09-29 06:23:12 51°29.872 2°54.034 20.8605 0.080769 0.411611 -0.826448
2010-09-29 06:23:17 51°29.891 2°54.043 20.8624 0.080769 0.411623 -0.7568
2010-09-29 06:23:22 51°29.91 2°54.053 20.8632 0.080769 0.411617 -0.791624
2010-09-29 06:23:28 51°29.934 2°54.063 20.8645 0.080769 0.411635 -0.826448
2010-09-29 06:23:33 51°29.953 2°54.071 20.8651 0.080769 0.411659 -0.791624
2010-09-29 06:23:37 51°29.968 2°54.079 20.8669 0.080769 0.411683 -0.791624
2010-09-29 06:23:42 51°29.987 2°54.088 20.8682 0.080769 0.411683 -0.791624
2010-09-29 06:23:47 51°30.006 2°54.097 20.8686 0.080769 0.411671 -0.791624
2010-09-29 06:23:52 51°30.026 2°54.107 20.8703 0.080769 0.411671 -0.791624
2010-09-29 06:23:57 51°30.045 2°54.116 20.8706 0.080769 0.411708 -0.826448
2010-09-29 06:24:02 51°30.063 2°54.125 20.8725 0.080769 0.411677 -0.826448
2010-09-29 06:24:07 51°30.083 2°54.134 20.873 0.080769 0.411701 -0.791624
2010-09-29 06:24:12 51°30.102 2°54.144 20.8744 0.080769 0.411701 -0.791624
2010-09-29 06:24:17 51°30.121 2°54.153 20.8755 0.080873 0.412274 -0.791624
2010-09-29 06:24:22 51°30.14 2°54.162 20.8762 0.080769 0.411708 -0.826448
2010-09-29 06:24:27 51°30.159 2°54.171 20.8781 0.080769 0.411726 -0.826448
2010-09-29 06:24:32 51°30.178 2°54.18 20.8788 0.080769 0.411738 -0.826448
2010-09-29 06:24:37 51°30.197 2°54.189 20.8795 0.080769 0.411744 -0.791624
2010-09-29 06:24:42 51°30.216 2°54.199 20.8814 0.080769 0.411744 -0.791624
2010-09-29 06:24:47 51°30.236 2°54.207 20.8826 0.080769 0.411738 -0.791624
2010-09-29 06:24:52 51°30.255 2°54.217 20.8841 0.080873 0.412316 -0.791624
2010-09-29 06:24:57 51°30.274 2°54.225 20.8852 0.080769 0.411774 -0.791624
2010-09-29 06:25:02 51°30.293 2°54.235 20.8864 0.080769 0.411768 -0.826448
2010-09-29 06:25:07 51°30.312 2°54.244 20.888 0.080873 0.412334 -0.791624
2010-09-29 06:25:12 51°30.331 2°54.253 20.8883 0.080873 0.412334 -0.791624
2010-09-29 06:25:17 51°30.35 2°54.262 20.8895 0.080873 0.412334 -0.826448
2010-09-29 06:25:22 51°30.369 2°54.271 20.8922 0.080873 0.412346 -0.826448
2010-09-29 06:25:27 51°30.389 2°54.28 20.8934 0.080873 0.412352 -0.7568
2010-09-29 06:25:33 51°30.411 2°54.291 20.8931 0.080873 0.412352 -0.791624
2010-09-29 06:25:37 51°30.427 2°54.297 20.8946 0.080873 0.412358 -0.791624
2010-09-29 06:25:42 51°30.446 2°54.307 20.8951 0.080873 0.412358 -0.791624
2010-09-29 06:25:47 51°30.465 2°54.315 20.8977 0.080873 0.41237 -0.826448
2010-09-29 06:25:52 51°30.484 2°54.324 20.8972 0.080873 0.412382 -0.791624
2010-09-29 06:25:57 51°30.504 2°54.332 20.8995 0.080873 0.412394 -0.791624
2010-09-29 06:26:02 51°30.522 2°54.342 20.8995 0.080873 0.412388 -0.791624
2010-09-29 06:26:07 51°30.542 2°54.35 20.9039 0.080873 0.412413 -0.791624